EW8144 Weather Reports


Display with metric or nautical units.
time (UTC)temp
F
wind
direction
speed
MPH
gust
MPH
rain 1hr
in
rain 24hr
in
rain mn
in
humidity
%
barometer
mb
20260505203513 64 251 17.0 26.0 0.00 0.00 0.00 66 1005.3
20260505203356 64 224 16.0 26.0 0.00 0.00 0.00 66 1005.2
20260505203258 64 257 17.0 26.0 0.00 0.00 0.00 66 1005.2
20260505203159 64 232 17.0 26.0 0.00 0.00 0.00 65 1005.2
20260505203134 64 251 17.0 26.0 0.00 0.00 0.00 65 1004.3
20260505203049 64 243 18.0 26.0 0.00 0.00 0.00 65 1005.1
20260505202936 65 253 19.0 26.0 0.00 0.00 0.00 65 1005.2
20260505202830 65 251 18.0 27.0 0.00 0.00 0.00 65 1005.2
20260505202712 65 254 17.0 24.0 0.00 0.00 0.00 65 1005.2
20260505202615 65 260 19.0 24.0 0.00 0.00 0.00 64 1005.1
20260505202515 65 253 18.0 24.0 0.00 0.00 0.00 64 1005.2
20260505202345 65 247 16.0 24.0 0.00 0.00 0.00 63 1005.1
20260505202251 65 219 16.0 24.0 0.00 0.00 0.00 63 1005.1
20260505202152 65 270 16.0 24.0 0.00 0.00 0.00 63 1005.1
20260505202053 65 233 17.0 24.0 0.00 0.00 0.00 63 1005.1
20260505202025 65 227 17.0 25.0 0.00 0.00 0.00 63 1004.2
20260505201948 65 247 18.0 25.0 0.00 0.00 0.00 62 1005.1
20260505201852 65 240 18.0 25.0 0.00 0.00 0.00 62 1005.0
20260505201756 66 253 18.0 25.0 0.00 0.00 0.00 62 1005.0
20260505201634 66 249 16.0 25.0 0.00 0.00 0.00 61 1005.0
20260505201536 66 226 17.0 25.0 0.00 0.00 0.00 61 1005.0
20260505201439 66 243 17.0 25.0 0.00 0.00 0.00 61 1005.0
20260505201341 66 236 17.0 25.0 0.00 0.00 0.00 61 1005.0
20260505201234 66 243 18.0 25.0 0.00 0.00 0.00 60 1005.0
20260505201137 66 240 17.0 23.0 0.00 0.00 0.00 60 1005.0
20260505201037 66 246 16.0 23.0 0.00 0.00 0.00 59 1005.0
20260505200924 66 223 16.0 23.0 0.00 0.00 0.00 59 1005.0
20260505200817 66 261 17.0 23.0 0.00 0.00 0.00 59 1004.9
20260505200720 67 226 17.0 23.0 0.00 0.00 0.00 59 1004.9
20260505200621 67 231 16.0 23.0 0.00 0.00 0.00 58 1004.9
20260505200551 66 247 16.0 23.0 0.00 0.00 0.00 58 1004.1
20260505200512 67 259 18.0 23.0 0.00 0.00 0.00 58 1004.9
20260505200332 67 250 16.0 23.0 0.00 0.00 0.00 57 1004.9
20260505200239 67 250 15.0 20.0 0.00 0.00 0.00 56 1004.9
20260505200121 67 229 15.0 20.0 0.00 0.00 0.00 56 1004.9
20260505200054 66 252 14.0 20.0 0.00 0.00 0.00 56 1004.0
20260505200010 67 243 14.0 20.0 0.00 0.00 0.00 55 1004.9
20260505195852 67 270 14.0 20.0 0.00 0.00 0.00 55 1004.9
20260505195734 67 250 13.0 20.0 0.00 0.00 0.00 54 1004.9
20260505195659 67 264 12.0 20.0 0.00 0.00 0.00 54 1003.9
20260505195626 67 245 14.0 20.0 0.00 0.00 0.00 53 1004.8
20260505195526 68 255 16.0 20.0 0.00 0.00 0.00 53 1004.8
20260505195412 68 249 15.0 20.0 0.00 0.00 0.00 52 1004.8
20260505195315 68 252 15.0 20.0 0.00 0.00 0.00 51 1004.8
20260505195205 68 252 14.0 20.0 0.00 0.00 0.00 50 1004.8
20260505195108 68 264 12.0 20.0 0.00 0.00 0.00 49 1004.8
20260505195009 68 245 12.0 18.0 0.00 0.00 0.00 48 1004.7
20260505194912 68 248 13.0 18.0 0.00 0.00 0.00 48 1004.7
20260505194807 68 266 13.0 18.0 0.00 0.00 0.00 48 1004.7
20260505194709 68 271 12.0 16.0 0.00 0.00 0.00 47 1004.6
20260505194612 68 263 11.0 16.0 0.00 0.00 0.00 48 1004.6
20260505194513 68 260 12.0 16.0 0.00 0.00 0.00 48 1004.5
20260505194346 68 267 12.0 16.0 0.00 0.00 0.00 48 1004.6
20260505194226 68 249 12.0 16.0 0.00 0.00 0.00 48 1004.4
20260505194108 68 253 11.0 16.0 0.00 0.00 0.00 48 1004.3
20260505194014 68 243 10.0 14.0 0.00 0.00 0.00 48 1004.2
20260505193907 68 263 9.0 12.0 0.00 0.00 0.00 48 1004.1
20260505193749 68 246 10.0 12.0 0.00 0.00 0.00 48 1004.1
20260505193652 67 233 9.0 12.0 0.00 0.00 0.00 49 1004.1
20260505193552 67 240 8.0 11.0 0.00 0.00 0.00 49 1004.0
20260505193527 67 234 7.0 9.0 0.00 0.00 0.00 49 1003.1
20260505193446 67 249 8.0 10.0 0.00 0.00 0.00 49 1004.0
20260505193353 67 236 8.0 10.0 0.00 0.00 0.00 49 1004.0
20260505193256 67 249 8.0 10.0 0.00 0.00 0.00 49 1004.0
20260505193016 67 231 7.0 10.0 0.00 0.00 0.00 49 1003.9
20260505192920 67 253 8.0 10.0 0.00 0.00 0.00 49 1003.9
20260505192823 67 251 7.0 10.0 0.00 0.00 0.00 48 1003.9
20260505192716 67 261 5.0 8.0 0.00 0.00 0.00 48 1003.8
20260505192623 68 253 5.0 8.0 0.00 0.00 0.00 48 1003.8
20260505192524 68 247 5.0 8.0 0.00 0.00 0.00 48 1003.8
20260505192427 68 240 5.0 8.0 0.00 0.00 0.00 47 1003.8
20260505192301 68 245 5.0 6.0 0.00 0.00 0.00 47 1003.7
20260505192143 68 240 4.0 6.0 0.00 0.00 0.00 47 1003.8
20260505192045 68 238 4.0 6.0 0.00 0.00 0.00 47 1003.8
20260505191948 69 243 4.0 6.0 0.00 0.00 0.00 47 1003.8
20260505191845 69 243 3.0 6.0 0.00 0.00 0.00 47 1003.7
20260505191748 69 249 4.0 7.0 0.00 0.00 0.00 46 1003.7
20260505191651 69 241 4.0 7.0 0.00 0.00 0.00 46 1003.7
20260505191550 69 240 4.0 7.0 0.00 0.00 0.00 46 1003.7
20260505191532 69 244 3.0 7.0 0.00 0.00 0.00 46 1002.8
20260505191445 69 258 3.0 7.0 0.00 0.00 0.00 46 1003.7
20260505191347 70 251 4.0 7.0 0.00 0.00 0.00 45 1003.7
20260505191233 70 257 4.0 7.0 0.00 0.00 0.00 45 1003.7
20260505191136 70 261 4.0 8.0 0.00 0.00 0.00 45 1003.7
20260505191102 70 261 4.0 8.0 0.00 0.00 0.00 45 1002.8
20260505191028 70 255 5.0 8.0 0.00 0.00 0.00 44 1003.7
20260505190930 70 228 5.0 8.0 0.00 0.00 0.00 45 1003.7
20260505190811 70 272 4.0 9.0 0.00 0.00 0.00 44 1003.6
20260505190653 71 259 4.0 9.0 0.00 0.00 0.00 44 1003.6
20260505190624 70 259 4.0 9.0 0.00 0.00 0.00 44 1002.7
20260505190529 71 259 5.0 9.0 0.00 0.00 0.00 44 1003.7
20260505190433 71 234 6.0 9.0 0.00 0.00 0.00 44 1003.6
20260505190337 71 230 6.0 9.0 0.00 0.00 0.00 44 1003.7
20260505190231 71 249 6.0 9.0 0.00 0.00 0.00 44 1003.6
20260505190113 71 230 6.0 9.0 0.00 0.00 0.00 44 1003.6
20260505190014 71 221 7.0 9.0 0.00 0.00 0.00 44 1003.6
20260505185907 71 222 6.0 9.0 0.00 0.00 0.00 44 1003.6
20260505185813 71 227 6.0 9.0 0.00 0.00 0.00 44 1003.6
20260505185716 71 247 6.0 9.0 0.00 0.00 0.00 43 1003.6
20260505185617 71 230 6.0 9.0 0.00 0.00 0.00 43 1003.5
20260505185542 71 243 5.0 9.0 0.00 0.00 0.00 43 1002.7
20260505185447 71 225 5.0 10.0 0.00 0.00 0.00 43 1003.5
20260505185330 71 235 5.0 10.0 0.00 0.00 0.00 43 1003.5
20260505185232 71 222 4.0 10.0 0.00 0.00 0.00 43 1003.5
20260505185109 71 221 4.0 10.0 0.00 0.00 0.00 43 1003.5
20260505185009 71 222 5.0 10.0 0.00 0.00 0.00 43 1003.6
20260505184912 71 217 5.0 10.0 0.00 0.00 0.00 43 1003.5
20260505184816 71 210 6.0 15.0 0.00 0.00 0.00 43 1003.5
20260505184710 71 215 6.0 15.0 0.00 0.00 0.00 43 1003.5
20260505184531 72 220 5.0 16.0 0.00 0.00 0.00 42 1003.5
20260505184439 71 217 6.0 16.0 0.00 0.00 0.00 43 1003.4
20260505184332 72 218 5.0 16.0 0.00 0.00 0.00 43 1003.5
20260505184233 72 193 5.0 16.0 0.00 0.00 0.00 42 1003.5
20260505184136 72 215 9.0 16.0 0.00 0.00 0.00 43 1003.5
20260505184016 72 249 9.0 16.0 0.00 0.00 0.00 42 1003.5
20260505183909 72 235 8.0 16.0 0.00 0.00 0.00 42 1003.5
20260505183755 72 218 8.0 16.0 0.00 0.00 0.00 42 1003.7
20260505183636 72 246 7.0 14.0 0.00 0.00 0.00 43 1003.5
20260505183538 72 219 7.0 14.0 0.00 0.00 0.00 42 1003.5
20260505183411 72 246 5.0 14.0 0.00 0.00 0.00 42 1003.4
20260505183313 72 226 4.0 14.0 0.00 0.00 0.00 43 1003.4
20260505183210 72 218 7.0 14.0 0.00 0.00 0.00 42 1003.4
20260505183113 72 225 8.0 14.0 0.00 0.00 0.00 42 1003.4
20260505183046 71 225 7.0 14.0 0.00 0.00 0.00 42 1002.5
20260505183008 72 237 6.0 14.0 0.00 0.00 0.00 42 1003.4
20260505182912 72 238 6.0 9.0 0.00 0.00 0.00 42 1003.4
20260505182815 72 230 6.0 9.0 0.00 0.00 0.00 42 1003.4
20260505182718 72 237 6.0 9.0 0.00 0.00 0.00 42 1003.5
20260505182651 72 226 5.0 10.0 0.00 0.00 0.00 42 1002.4
20260505182611 72 242 6.0 10.0 0.00 0.00 0.00 42 1003.4
20260505182511 72 232 6.0 10.0 0.00 0.00 0.00 42 1003.4
20260505182355 72 216 6.0 10.0 0.00 0.00 0.00 42 1003.4
20260505182235 72 270 7.0 10.0 0.00 0.00 0.00 42 1003.4
20260505182129 73 230 6.0 10.0 0.00 0.00 0.00 42 1003.4
20260505182009 73 224 7.0 10.0 0.00 0.00 0.00 41 1003.4
20260505181912 73 229 7.0 10.0 0.00 0.00 0.00 42 1003.4
20260505181816 73 203 5.0 10.0 0.00 0.00 0.00 41 1003.3
20260505181649 73 226 5.0 9.0 0.00 0.00 0.00 41 1003.3
20260505181553 73 230 5.0 9.0 0.00 0.00 0.00 41 1003.3
20260505181433 73 207 5.0 9.0 0.00 0.00 0.00 41 1003.2
20260505181336 73 224 5.0 9.0 0.00 0.00 0.00 41 1003.2
20260505181227 73 224 6.0 9.0 0.00 0.00 0.00 41 1003.2
20260505181130 74 202 6.0 9.0 0.00 0.00 0.00 40 1003.2
20260505180948 74 220 5.0 10.0 0.00 0.00 0.00 41 1003.3
20260505180856 74 238 5.0 10.0 0.00 0.00 0.00 41 1003.2
20260505180749 74 230 6.0 12.0 0.00 0.00 0.00 40 1003.2
20260505180654 74 223 6.0 12.0 0.00 0.00 0.00 40 1003.2
20260505180554 74 189 5.0 12.0 0.00 0.00 0.00 40 1003.2
20260505180437 74 214 4.0 12.0 0.00 0.00 0.00 40 1003.2
20260505180332 74 218 5.0 12.0 0.00 0.00 0.00 40 1003.1
20260505180232 74 208 5.0 12.0 0.00 0.00 0.00 40 1003.1
20260505180140 74 228 6.0 12.0 0.00 0.00 0.00 39 1003.2
20260505180041 74 180 7.0 12.0 0.00 0.00 0.00 39 1003.2
20260505180013 74 227 7.0 12.0 0.00 0.00 0.00 39 1002.2
20260505175935 74 206 7.0 12.0 0.00 0.00 0.00 39 1003.3
20260505175836 75 207 4.0 9.0 0.00 0.00 0.00 39 1003.2
20260505175657 75 226 3.0 9.0 0.00 0.00 0.00 39 1003.1
20260505175557 75 210 4.0 9.0 0.00 0.00 0.00 39 1003.2
20260505175536 74 210 4.0 9.0 0.00 0.00 0.00 39 1002.3
20260505175434 75 229 5.0 9.0 0.00 0.00 0.00 39 1003.2
20260505175337 75 172 5.0 10.0 0.00 0.00 0.00 39 1003.2
20260505175229 75 197 4.0 10.0 0.00 0.00 0.00 39 1003.2
20260505175133 75 190 5.0 10.0 0.00 0.00 0.00 39 1003.2
20260505175034 75 218 6.0 10.0 0.00 0.00 0.00 38 1003.2
20260505174933 75 204 5.0 10.0 0.00 0.00 0.00 38 1003.2
20260505174809 76 212 5.0 10.0 0.00 0.00 0.00 38 1003.3
20260505174712 76 197 6.0 10.0 0.00 0.00 0.00 38 1003.2
20260505174616 76 195 6.0 10.0 0.00 0.00 0.00 38 1003.3
20260505174517 76 221 6.0 11.0 0.00 0.00 0.00 38 1003.2
20260505174411 76 191 6.0 11.0 0.00 0.00 0.00 38 1003.2
20260505174254 76 210 6.0 10.0 0.00 0.00 0.00 38 1003.2
20260505174154 76 232 6.0 10.0 0.00 0.00 0.00 37 1003.2
20260505174059 76 204 6.0 10.0 0.00 0.00 0.00 37 1003.1
20260505174024 76 199 5.0 10.0 0.00 0.00 0.00 37 1002.2
20260505173931 77 222 5.0 10.0 0.00 0.00 0.00 37 1003.2
20260505173833 77 203 6.0 10.0 0.00 0.00 0.00 38 1003.2
20260505173736 77 245 5.0 10.0 0.00 0.00 0.00 37 1003.2
20260505173639 77 222 5.0 10.0 0.00 0.00 0.00 37 1003.2
20260505173543 76 237 4.0 10.0 0.00 0.00 0.00 37 1002.3
20260505173510 77 187 4.0 10.0 0.00 0.00 0.00 38 1003.2
20260505173335 77 220 3.0 8.0 0.00 0.00 0.00 37 1003.2
20260505173235 77 216 3.0 9.0 0.00 0.00 0.00 37 1003.1
20260505173145 77 227 3.0 9.0 0.00 0.00 0.00 37 1002.2
20260505173108 77 193 4.0 9.0 0.00 0.00 0.00 37 1003.2
20260505173008 77 211 5.0 10.0 0.00 0.00 0.00 37 1003.1
20260505172911 77 189 4.0 10.0 0.00 0.00 0.00 37 1003.2
20260505172815 77 193 3.0 10.0 0.00 0.00 0.00 37 1003.1
20260505172632 77 225 4.0 10.0 0.00 0.00 0.00 37 1003.0
20260505172534 77 220 5.0 10.0 0.00 0.00 0.00 37 1003.1
20260505172502 77 228 5.0 10.0 0.00 0.00 0.00 36 1002.2
20260505172427 77 230 5.0 10.0 0.00 0.00 0.00 36 1003.2
20260505172308 77 228 5.0 10.0 0.00 0.00 0.00 37 1003.2
20260505172210 78 191 5.0 11.0 0.00 0.00 0.00 37 1003.1
20260505172111 78 198 3.0 9.0 0.00 0.00 0.00 36 1003.1
20260505172021 77 218 3.0 9.0 0.00 0.00 0.00 36 1002.2
20260505171948 78 214 5.0 9.0 0.00 0.00 0.00 36 1003.1
20260505171850 78 215 5.0 9.0 0.00 0.00 0.00 36 1003.1
20260505171754 78 224 5.0 9.0 0.00 0.00 0.00 36 1003.1
20260505171657 78 203 4.0 9.0 0.00 0.00 0.00 36 1003.1
20260505171622 77 197 4.0 9.0 0.00 0.00 0.00 36 1002.2
20260505171419 78 218 3.0 9.0 0.00 0.00 0.00 36 1003.1
20260505171322 78 193 2.0 9.0 0.00 0.00 0.00 36 1003.1
20260505171226 78 209 3.0 9.0 0.00 0.00 0.00 36 1003.1
20260505171158 77 187 3.0 9.0 0.00 0.00 0.00 36 1002.2
20260505171120 78 172 5.0 9.0 0.00 0.00 0.00 36 1003.1
20260505171022 78 203 5.0 9.0 0.00 0.00 0.00 36 1003.2
20260505170906 78 227 4.0 9.0 0.00 0.00 0.00 36 1003.2
20260505170810 78 168 4.0 9.0 0.00 0.00 0.00 36 1003.1
20260505170703 78 209 4.0 9.0 0.00 0.00 0.00 36 1003.2
20260505170607 78 218 3.0 7.0 0.00 0.00 0.00 36 1003.1
20260505170513 78 211 3.0 7.0 0.00 0.00 0.00 37 1003.1
20260505170415 78 195 4.0 11.0 0.00 0.00 0.00 37 1003.1
20260505170308 78 210 4.0 11.0 0.00 0.00 0.00 35 1003.2
20260505170209 78 207 4.0 11.0 0.00 0.00 0.00 35 1003.1
20260505170110 78 178 3.0 11.0 0.00 0.00 0.00 36 1003.2
20260505165833 78 168 3.0 11.0 0.00 0.00 0.00 35 1003.3
20260505165739 78 224 4.0 11.0 0.00 0.00 0.00 35 1003.2
20260505165643 78 197 5.0 11.0 0.00 0.00 0.00 35 1003.3
20260505165543 78 227 5.0 7.0 0.00 0.00 0.00 35 1003.3
20260505165526 78 216 4.0 7.0 0.00 0.00 0.00 35 1002.3
20260505165437 78 207 4.0 7.0 0.00 0.00 0.00 35 1003.3
20260505165338 78 219 2.0 8.0 0.00 0.00 0.00 35 1003.3
20260505165158 78 216 2.0 8.0 0.00 0.00 0.00 36 1003.3
20260505165120 78 216 2.0 8.0 0.00 0.00 0.00 36 1002.3
20260505165033 78 216 2.0 9.0 0.00 0.00 0.00 36 1003.3
20260505164936 78 213 3.0 12.0 0.00 0.00 0.00 35 1003.3
20260505164839 78 215 5.0 12.0 0.00 0.00 0.00 35 1003.3
20260505164710 78 230 5.0 12.0 0.00 0.00 0.00 35 1003.3
20260505164612 78 234 5.0 12.0 0.00 0.00 0.00 35 1003.3
20260505164452 78 213 5.0 12.0 0.00 0.00 0.00 34 1003.3
20260505164359 78 176 5.0 12.0 0.00 0.00 0.00 34 1003.3
20260505164304 78 182 6.0 12.0 0.00 0.00 0.00 34 1003.3
20260505164147 79 240 6.0 12.0 0.00 0.00 0.00 34 1003.3
20260505164049 79 181 5.0 10.0 0.00 0.00 0.00 34 1003.3
20260505163952 79 202 4.0 10.0 0.00 0.00 0.00 34 1003.2
20260505163853 79 213 5.0 10.0 0.00 0.00 0.00 35 1003.3
20260505163747 79 222 5.0 9.0 0.00 0.00 0.00 34 1003.3
20260505163654 79 166 5.0 14.0 0.00 0.00 0.00 34 1003.2
20260505163556 79 199 5.0 14.0 0.00 0.00 0.00 33 1003.3
20260505163458 79 210 5.0 14.0 0.00 0.00 0.00 33 1003.3
20260505163352 79 202 6.0 14.0 0.00 0.00 0.00 34 1003.3
20260505163255 80 220 6.0 14.0 0.00 0.00 0.00 34 1003.3
20260505163157 80 230 5.0 14.0 0.00 0.00 0.00 33 1003.3
20260505163102 80 189 5.0 14.0 0.00 0.00 0.00 33 1003.3
20260505162945 80 208 8.0 14.0 0.00 0.00 0.00 33 1003.3
20260505162816 80 222 8.0 16.0 0.00 0.00 0.00 34 1003.2
20260505162718 80 245 7.0 14.0 0.00 0.00 0.00 34 1003.3
20260505162518 80 201 5.0 14.0 0.00 0.00 0.00 34 1002.4
20260505162441 80 235 5.0 14.0 0.00 0.00 0.00 34 1003.3
20260505162343 80 218 7.0 14.0 0.00 0.00 0.00 34 1003.3
20260505162227 80 236 8.0 14.0 0.00 0.00 0.00 33 1003.3
20260505162131 80 213 7.0 14.0 0.00 0.00 0.00 34 1003.3
20260505162056 80 241 6.0 13.0 0.00 0.00 0.00 34 1002.4
20260505162020 80 206 5.0 11.0 0.00 0.00 0.00 33 1003.3
20260505161903 80 180 7.0 11.0 0.00 0.00 0.00 34 1003.4
20260505161745 80 221 6.0 13.0 0.00 0.00 0.00 35 1003.3
20260505161628 80 223 6.0 13.0 0.00 0.00 0.00 34 1003.3
20260505161534 80 218 6.0 13.0 0.00 0.00 0.00 34 1002.4
20260505161457 80 196 7.0 13.0 0.00 0.00 0.00 33 1003.4
20260505161343 80 202 7.0 13.0 0.00 0.00 0.00 34 1003.4
20260505161246 80 218 7.0 13.0 0.00 0.00 0.00 35 1003.4
20260505161147 80 234 7.0 13.0 0.00 0.00 0.00 34 1003.5
20260505161026 80 232 5.0 10.0 0.00 0.00 0.00 36 1003.4
20260505161005 80 232 5.0 10.0 0.00 0.00 0.00 35 1002.5
20260505160921 80 214 6.0 10.0 0.00 0.00 0.00 35 1003.4
20260505160656 80 213 7.0 11.0 0.00 0.00 0.00 33 1003.4
20260505160621 79 224 7.0 11.0 0.00 0.00 0.00 33 1002.5
20260505160532 80 251 7.0 11.0 0.00 0.00 0.00 34 1003.5
20260505160435 80 218 5.0 11.0 0.00 0.00 0.00 34 1003.5
20260505160316 80 210 4.0 11.0 0.00 0.00 0.00 33 1003.4
20260505160208 80 209 5.0 11.0 0.00 0.00 0.00 33 1003.5
20260505160109 80 194 7.0 11.0 0.00 0.00 0.00 33 1003.5
20260505153259 81 217 8.0 20.0 0.00 0.00 0.00 32 1003.7
20260505153200 81 202 8.0 20.0 0.00 0.00 0.00 32 1003.7
20260505153101 81 218 7.0 20.0 0.00 0.00 0.00 32 1003.6
20260505153008 81 235 7.0 20.0 0.00 0.00 0.00 31 1003.6
20260505152902 82 213 7.0 21.0 0.00 0.00 0.00 31 1003.7
20260505152743 82 209 11.0 21.0 0.00 0.00 0.00 31 1003.7
20260505152644 82 240 12.0 21.0 0.00 0.00 0.00 31 1003.7
20260505152523 82 238 9.0 21.0 0.00 0.00 0.00 31 1003.7
20260505152356 82 212 11.0 21.0 0.00 0.00 0.00 31 1003.7
20260505152305 82 239 12.0 21.0 0.00 0.00 0.00 31 1003.7
20260505152204 82 244 14.0 21.0 0.00 0.00 0.00 31 1003.8
20260505152106 83 192 15.0 21.0 0.00 0.00 0.00 31 1003.9
20260505152033 82 230 13.0 21.0 0.00 0.00 0.00 31 1002.7
20260505151937 83 238 11.0 17.0 0.00 0.00 0.00 32 1003.7
20260505151840 83 182 10.0 17.0 0.00 0.00 0.00 33 1003.7
20260505151719 82 236 8.0 17.0 0.00 0.00 0.00 32 1003.8
20260505151622 82 182 7.0 17.0 0.00 0.00 0.00 32 1003.7
20260505151552 82 208 7.0 17.0 0.00 0.00 0.00 32 1002.9
20260505151517 82 236 8.0 17.0 0.00 0.00 0.00 33 1003.8
20260505151359 82 210 10.0 17.0 0.00 0.00 0.00 33 1003.7
20260505151301 81 228 10.0 16.0 0.00 0.00 0.00 33 1003.7
20260505151143 81 235 9.0 15.0 0.00 0.00 0.00 32 1003.8
20260505151113 81 236 8.0 15.0 0.00 0.00 0.00 32 1002.9
20260505151034 81 205 8.0 15.0 0.00 0.00 0.00 34 1003.8
20260505150914 81 205 8.0 14.0 0.00 0.00 0.00 34 1003.8
20260505150759 80 216 5.0 9.0 0.00 0.00 0.00 34 1003.8
20260505150700 80 210 5.0 8.0 0.00 0.00 0.00 34 1003.7
20260505150631 80 231 5.0 8.0 0.00 0.00 0.00 34 1002.8
20260505150530 80 242 3.0 7.0 0.00 0.00 0.00 33 1003.8
20260505150435 80 140 3.0 10.0 0.00 0.00 0.00 34 1003.8
20260505150327 80 216 3.0 10.0 0.00 0.00 0.00 34 1003.8
20260505150207 80 197 2.0 11.0 0.00 0.00 0.00 35 1003.8
20260505150115 80 197 4.0 11.0 0.00 0.00 0.00 34 1003.8
20260505140634 84 103 4.0 11.0 0.00 0.00 0.00 31 1003.8
20260505140515 84 73 3.0 11.0 0.00 0.00 0.00 33 1003.8
20260505140413 84 100 1.0 11.0 0.00 0.00 0.00 32 1003.8
20260505140256 84 80 2.0 11.0 0.00 0.00 0.00 33 1003.8
20260505140158 84 80 5.0 11.0 0.00 0.00 0.00 33 1003.9
20260505140117 83 79 6.0 11.0 0.00 0.00 0.00 31 1002.9
20260505130253 82 78 6.0 13.0 0.00 0.00 0.00 36 1004.7
20260505130153 82 62 8.0 13.0 0.00 0.00 0.00 36 1004.7
20260505125009 81 55 6.0 12.0 0.00 0.00 0.00 37 1004.8
20260505124912 81 88 6.0 12.0 0.00 0.00 0.00 38 1004.9
20260505124815 81 84 5.0 12.0 0.00 0.00 0.00 37 1004.8
20260505124708 81 97 4.0 12.0 0.00 0.00 0.00 38 1004.8
20260505124616 81 72 4.0 12.0 0.00 0.00 0.00 37 1004.8
20260505124515 81 90 6.0 17.0 0.00 0.00 0.00 37 1004.9
20260505124354 81 68 7.0 17.0 0.00 0.00 0.00 37 1005.0
20260505124249 81 44 7.0 17.0 0.00 0.00 0.00 37 1004.9
20260505124148 81 93 7.0 17.0 0.00 0.00 0.00 37 1004.9
20260505124050 81 64 7.0 17.0 0.00 0.00 0.00 37 1004.9
20260505123953 81 49 5.0 17.0 0.00 0.00 0.00 38 1005.0
20260505123829 81 97 6.0 17.0 0.00 0.00 0.00 36 1005.0
20260505123732 81 60 7.0 17.0 0.00 0.00 0.00 37 1005.0
20260505123635 81 98 6.0 17.0 0.00 0.00 0.00 38 1005.0
20260505123535 81 43 5.0 11.0 0.00 0.00 0.00 37 1005.0
20260505123511 81 66 5.0 11.0 0.00 0.00 0.00 37 1004.1
20260505123427 81 70 6.0 11.0 0.00 0.00 0.00 38 1005.1
20260505123307 81 69 6.0 11.0 0.00 0.00 0.00 38 1005.1
20260505123213 81 6 5.0 11.0 0.00 0.00 0.00 39 1005.1
20260505123115 81 72 3.0 11.0 0.00 0.00 0.00 38 1005.1
20260505123105 80 107 4.0 11.0 0.00 0.00 0.00 38 1004.3
20260505123007 81 270 4.0 11.0 0.00 0.00 0.00 38 1005.2
20260505122849 80 56 4.0 13.0 0.00 0.00 0.00 39 1005.2
20260505122752 80 59 5.0 13.0 0.00 0.00 0.00 38 1005.2
20260505122653 80 40 6.0 13.0 0.00 0.00 0.00 37 1005.2
20260505122629 80 125 6.0 13.0 0.00 0.00 0.00 38 1004.3
20260505122545 80 41 7.0 13.0 0.00 0.00 0.00 37 1005.2
20260505122451 80 45 7.0 13.0 0.00 0.00 0.00 37 1005.2
20260505122332 80 97 5.0 13.0 0.00 0.00 0.00 39 1005.2
20260505122233 80 6 5.0 13.0 0.00 0.00 0.00 39 1005.3
20260505122107 80 85 7.0 13.0 0.00 0.00 0.00 38 1005.3
20260505122007 80 6 8.0 13.0 0.00 0.00 0.00 37 1005.3
20260505121910 80 66 6.0 11.0 0.00 0.00 0.00 38 1005.3
20260505121817 80 107 5.0 12.0 0.00 0.00 0.00 39 1005.3
20260505121710 80 55 5.0 12.0 0.00 0.00 0.00 38 1005.4
20260505121610 80 60 7.0 12.0 0.00 0.00 0.00 38 1005.4
20260505121452 80 49 7.0 12.0 0.00 0.00 0.00 38 1005.4
20260505121347 80 55 6.0 12.0 0.00 0.00 0.00 38 1005.4
20260505121250 80 54 6.0 12.0 0.00 0.00 0.00 38 1005.4
20260505121133 80 6 7.0 12.0 0.00 0.00 0.00 38 1005.4
20260505121039 80 75 7.0 12.0 0.00 0.00 0.00 37 1005.5
20260505121008 80 47 7.0 12.0 0.00 0.00 0.00 39 1004.6
20260505120933 80 68 7.0 11.0 0.00 0.00 0.00 39 1005.5
20260505120834 80 85 6.0 14.0 0.00 0.00 0.00 39 1005.6
20260505120737 80 79 5.0 14.0 0.00 0.00 0.00 37 1005.5
20260505120619 80 95 7.0 14.0 0.00 0.00 0.00 38 1005.5
20260505120551 79 112 7.0 14.0 0.00 0.00 0.00 36 1004.7
20260505120509 80 93 8.0 14.0 0.00 0.00 0.00 36 1005.6
20260505120417 80 77 8.0 14.0 0.00 0.00 0.00 37 1005.6
20260505120320 80 113 6.0 14.0 0.00 0.00 0.00 37 1005.7
20260505120201 80 85 7.0 14.0 0.00 0.00 0.00 37 1005.7
20260505120113 79 91 7.0 14.0 0.00 0.00 0.00 37 1004.7
20260505120032 80 357 7.0 14.0 0.00 0.00 0.00 38 1005.7
20260505115914 80 68 8.0 14.0 0.00 0.00 0.00 38 1005.7
20260505115756 80 70 9.0 14.0 0.00 0.00 0.00 38 1005.8
20260505115633 80 77 8.0 14.0 0.00 0.00 0.00 38 1005.8
20260505115534 80 79 10.0 14.0 0.00 0.00 0.00 39 1005.7
20260505115437 80 101 9.0 17.0 0.00 0.00 0.00 38 1005.8
20260505115308 80 61 8.0 17.0 0.00 0.00 0.00 39 1005.8
20260505115149 79 103 10.0 17.0 0.00 0.00 0.00 39 1005.8
20260505115031 79 90 8.0 17.0 0.00 0.00 0.00 37 1005.9
20260505115007 79 76 7.0 17.0 0.00 0.00 0.00 37 1004.9
20260505114928 79 91 8.0 17.0 0.00 0.00 0.00 36 1005.8
20260505114831 79 59 11.0 17.0 0.00 0.00 0.00 36 1005.9
20260505114712 79 104 10.0 17.0 0.00 0.00 0.00 36 1005.8
20260505114615 79 85 9.0 17.0 0.00 0.00 0.00 36 1005.9
20260505114604 79 74 8.0 15.0 0.00 0.00 0.00 36 1004.9
20260505114503 79 71 8.0 15.0 0.00 0.00 0.00 36 1005.9
20260505114406 79 76 8.0 15.0 0.00 0.00 0.00 37 1005.9
20260505114310 79 90 8.0 16.0 0.00 0.00 0.00 38 1005.9
20260505114215 79 71 8.0 16.0 0.00 0.00 0.00 39 1005.9
20260505114151 79 92 7.0 16.0 0.00 0.00 0.00 38 1005.0
20260505114109 79 78 7.0 16.0 0.00 0.00 0.00 39 1005.9
20260505114010 79 76 7.0 16.0 0.00 0.00 0.00 39 1006.0
20260505113913 79 116 9.0 16.0 0.00 0.00 0.00 38 1005.9
20260505113817 79 89 10.0 16.0 0.00 0.00 0.00 38 1005.9
20260505113712 79 70 10.0 16.0 0.00 0.00 0.00 41 1005.9
20260505113615 79 87 10.0 16.0 0.00 0.00 0.00 39 1005.9
20260505113435 79 47 10.0 15.0 0.00 0.00 0.00 39 1005.9
20260505113338 79 103 9.0 15.0 0.00 0.00 0.00 41 1006.0
20260505113210 79 85 8.0 14.0 0.00 0.00 0.00 41 1006.0
20260505113112 79 98 8.0 14.0 0.00 0.00 0.00 40 1006.1
20260505113014 79 93 9.0 14.0 0.00 0.00 0.00 41 1006.1
20260505112906 79 87 9.0 13.0 0.00 0.00 0.00 41 1006.1
20260505112814 79 100 8.0 13.0 0.00 0.00 0.00 42 1006.1
20260505112653 79 126 7.0 13.0 0.00 0.00 0.00 42 1006.2
20260505112554 79 100 7.0 13.0 0.00 0.00 0.00 40 1006.2
20260505112457 79 88 8.0 13.0 0.00 0.00 0.00 40 1006.1
20260505112350 79 73 8.0 14.0 0.00 0.00 0.00 41 1006.2
20260505112231 79 89 7.0 14.0 0.00 0.00 0.00 42 1006.2
20260505112138 79 89 7.0 14.0 0.00 0.00 0.00 41 1006.2
20260505112038 79 106 7.0 14.0 0.00 0.00 0.00 42 1006.2
20260505112015 78 89 6.0 14.0 0.00 0.00 0.00 42 1005.3
20260505111932 79 85 8.0 14.0 0.00 0.00 0.00 42 1006.2
20260505111834 79 65 8.0 14.0 0.00 0.00 0.00 42 1006.2
20260505111736 79 111 8.0 14.0 0.00 0.00 0.00 43 1006.2
20260505111619 79 112 9.0 14.0 0.00 0.00 0.00 43 1006.2
20260505111605 78 89 8.0 14.0 0.00 0.00 0.00 43 1005.3
20260505111510 78 100 9.0 14.0 0.00 0.00 0.00 43 1006.2
20260505111417 78 58 8.0 13.0 0.00 0.00 0.00 43 1006.3
20260505111259 78 85 7.0 16.0 0.00 0.00 0.00 43 1006.3
20260505111201 78 90 7.0 16.0 0.00 0.00 0.00 43 1006.3
20260505111138 78 105 7.0 16.0 0.00 0.00 0.00 43 1005.4
20260505111051 78 83 8.0 16.0 0.00 0.00 0.00 42 1006.3
20260505110953 78 97 7.0 16.0 0.00 0.00 0.00 42 1006.3
20260505110857 78 50 8.0 16.0 0.00 0.00 0.00 42 1006.3
20260505110803 78 68 9.0 16.0 0.00 0.00 0.00 43 1006.3
20260505110655 78 115 10.0 16.0 0.00 0.00 0.00 42 1006.4
20260505110556 78 108 11.0 16.0 0.00 0.00 0.00 42 1006.4
20260505110500 78 105 10.0 16.0 0.00 0.00 0.00 42 1006.3
20260505110404 78 64 8.0 14.0 0.00 0.00 0.00 43 1006.3
20260505110255 78 57 6.0 14.0 0.00 0.00 0.00 42 1006.3
20260505110136 78 69 8.0 14.0 0.00 0.00 0.00 42 1006.4
20260505102137 77 144 6.0 12.0 0.00 0.00 0.00 44 1007.1
20260505102037 77 117 6.0 12.0 0.00 0.00 0.00 43 1007.0
20260505101938 77 100 7.0 12.0 0.00 0.00 0.00 42 1007.0
20260505101830 77 78 7.0 12.0 0.00 0.00 0.00 42 1007.0
20260505101716 77 110 8.0 14.0 0.00 0.00 0.00 42 1007.1
20260505101619 77 103 9.0 14.0 0.00 0.00 0.00 42 1007.1
20260505101544 76 68 8.0 14.0 0.00 0.00 0.00 43 1006.2
20260505101509 77 86 9.0 14.0 0.00 0.00 0.00 43 1007.1
20260505101351 77 77 8.0 14.0 0.00 0.00 0.00 43 1007.2
20260505101253 77 74 7.0 14.0 0.00 0.00 0.00 44 1007.1
20260505101115 77 59 8.0 14.0 0.00 0.00 0.00 44 1007.2
20260505101042 76 82 9.0 14.0 0.00 0.00 0.00 43 1006.4
20260505101005 77 99 9.0 14.0 0.00 0.00 0.00 43 1007.3
20260505100851 76 87 6.0 13.0 0.00 0.00 0.00 44 1007.2
20260505100754 76 70 5.0 13.0 0.00 0.00 0.00 43 1007.2
20260505100658 76 93 7.0 13.0 0.00 0.00 0.00 45 1007.2
20260505100559 76 108 7.0 13.0 0.00 0.00 0.00 45 1006.4
20260505100527 76 95 8.0 13.0 0.00 0.00 0.00 45 1007.3
20260505100409 76 99 7.0 12.0 0.00 0.00 0.00 44 1007.3
20260505100312 76 97 6.0 12.0 0.00 0.00 0.00 45 1007.3
20260505100157 76 86 7.0 12.0 0.00 0.00 0.00 44 1007.3
20260505100117 75 120 6.0 12.0 0.00 0.00 0.00 44 1006.5
20260505100029 76 92 6.0 12.0 0.00 0.00 0.00 43 1007.3
20260505095933 76 60 7.0 12.0 0.00 0.00 0.00 42 1007.3
20260505095836 76 97 8.0 12.0 0.00 0.00 0.00 43 1007.4
20260505095729 76 66 8.0 12.0 0.00 0.00 0.00 44 1007.4
20260505095632 76 64 8.0 11.0 0.00 0.00 0.00 45 1007.4
20260505095515 76 74 7.0 11.0 0.00 0.00 0.00 44 1007.4
20260505095417 76 78 5.0 10.0 0.00 0.00 0.00 44 1007.4
20260505095310 76 74 6.0 10.0 0.00 0.00 0.00 44 1007.4
20260505095212 76 114 6.0 10.0 0.00 0.00 0.00 44 1007.4
20260505095115 76 108 5.0 10.0 0.00 0.00 0.00 46 1007.4
20260505094956 76 85 6.0 10.0 0.00 0.00 0.00 44 1007.4
20260505094833 76 78 6.0 9.0 0.00 0.00 0.00 43 1007.4
20260505094736 76 69 5.0 10.0 0.00 0.00 0.00 44 1007.4
20260505094629 77 64 4.0 10.0 0.00 0.00 0.00 43 1007.4
20260505094449 77 45 5.0 10.0 0.00 0.00 0.00 44 1007.5
20260505094331 77 64 5.0 10.0 0.00 0.00 0.00 43 1007.5
20260505094224 77 64 4.0 10.0 0.00 0.00 0.00 43 1007.5
20260505094110 77 81 5.0 10.0 0.00 0.00 0.00 44 1007.5
20260505094011 77 94 5.0 10.0 0.00 0.00 0.00 45 1007.6
20260505093915 77 85 5.0 9.0 0.00 0.00 0.00 44 1007.6
20260505093747 77 35 4.0 9.0 0.00 0.00 0.00 44 1007.6
20260505093631 77 85 3.0 6.0 0.00 0.00 0.00 42 1007.6
20260505093511 77 328 1.0 5.0 0.00 0.00 0.00 43 1007.6
20260505093407 77 355 1.0 5.0 0.00 0.00 0.00 43 1007.7
20260505093250 77 272 2.0 5.0 0.00 0.00 0.00 44 1007.7
20260505093151 76 324 3.0 5.0 0.00 0.00 0.00 44 1007.7
20260505093053 76 30 2.0 5.0 0.00 0.00 0.00 44 1007.7
20260505093031 76 6 1.0 5.0 0.00 0.00 0.00 44 1006.8
20260505092946 76 45 2.0 8.0 0.00 0.00 0.00 44 1007.7
20260505092849 76 78 1.0 8.0 0.00 0.00 0.00 44 1007.8
20260505092730 76 107 2.0 8.0 0.00 0.00 0.00 44 1007.8
20260505092618 76 107 3.0 8.0 0.00 0.00 0.00 43 1007.8
20260505092554 75 107 2.0 8.0 0.00 0.00 0.00 43 1007.0
20260505092510 76 105 2.0 8.0 0.00 0.00 0.00 43 1007.8
20260505092331 76 51 3.0 8.0 0.00 0.00 0.00 44 1007.8
20260505092224 76 89 5.0 8.0 0.00 0.00 0.00 44 1007.8
20260505092102 76 99 4.0 8.0 0.00 0.00 0.00 45 1007.8
20260505091942 76 31 4.0 6.0 0.00 0.00 0.00 45 1007.9
20260505091849 76 58 3.0 6.0 0.00 0.00 0.00 46 1007.8
20260505091740 76 83 2.0 6.0 0.00 0.00 0.00 47 1007.8
20260505091643 76 73 3.0 6.0 0.00 0.00 0.00 47 1007.9
20260505091544 76 51 3.0 7.0 0.00 0.00 0.00 47 1007.9
20260505091516 75 83 2.0 7.0 0.00 0.00 0.00 47 1007.0
20260505091438 75 65 1.0 6.0 0.00 0.00 0.00 46 1007.9
20260505091339 75 53 1.0 6.0 0.00 0.00 0.00 46 1007.9
20260505091223 75 53 1.0 6.0 0.00 0.00 0.00 45 1007.9
20260505091041 75 80 2.0 6.0 0.00 0.00 0.00 46 1007.9
20260505090944 75 80 2.0 6.0 0.00 0.00 0.00 46 1008.0
20260505090838 75 107 2.0 6.0 0.00 0.00 0.00 47 1007.9
20260505090742 75 105 3.0 5.0 0.00 0.00 0.00 48 1008.0
20260505090623 75 91 3.0 5.0 0.00 0.00 0.00 49 1008.0
20260505090525 75 88 2.0 5.0 0.00 0.00 0.00 48 1008.0
20260505090432 75 303 2.0 5.0 0.00 0.00 0.00 48 1008.0
20260505090259 75 81 2.0 5.0 0.00 0.00 0.00 47 1008.1
20260505090201 75 81 2.0 5.0 0.00 0.00 0.00 48 1008.1
20260505090101 75 80 2.0 5.0 0.00 0.00 0.00 47 1008.2
20260505090037 74 73 2.0 6.0 0.00 0.00 0.00 47 1007.3
20260505085954 75 76 2.0 6.0 0.00 0.00 0.00 48 1008.2
20260505085856 75 76 2.0 6.0 0.00 0.00 0.00 48 1008.2
20260505085740 75 76 3.0 6.0 0.00 0.00 0.00 48 1008.2
20260505085644 75 87 2.0 6.0 0.00 0.00 0.00 48 1008.2
20260505085615 74 72 1.0 6.0 0.00 0.00 0.00 48 1007.4
20260505085533 75 47 2.0 6.0 0.00 0.00 0.00 48 1008.2
20260505085433 75 58 3.0 6.0 0.00 0.00 0.00 48 1008.2
20260505085316 75 84 4.0 6.0 0.00 0.00 0.00 47 1008.3
20260505085217 75 59 3.0 6.0 0.00 0.00 0.00 48 1008.2
20260505085146 74 25 2.0 6.0 0.00 0.00 0.00 49 1007.3
20260505085106 75 312 1.0 4.0 0.00 0.00 0.00 48 1008.2
20260505084931 75 60 2.0 5.0 0.00 0.00 0.00 48 1008.2
20260505084831 75 75 2.0 5.0 0.00 0.00 0.00 48 1008.2
20260505084722 75 53 2.0 5.0 0.00 0.00 0.00 49 1008.2
20260505084623 75 66 2.0 5.0 0.00 0.00 0.00 50 1008.2
20260505084521 74 85 1.0 5.0 0.00 0.00 0.00 49 1008.2
20260505084422 74 16 1.0 5.0 0.00 0.00 0.00 48 1008.3
20260505084326 74 53 1.0 5.0 0.00 0.00 0.00 49 1008.2
20260505084217 74 53 2.0 5.0 0.00 0.00 0.00 48 1008.3
20260505084120 74 42 2.0 5.0 0.00 0.00 0.00 48 1008.3
20260505084018 74 55 2.0 4.0 0.00 0.00 0.00 49 1008.3
20260505083919 74 89 1.0 4.0 0.00 0.00 0.00 50 1008.3
20260505083809 74 122 1.0 3.0 0.00 0.00 0.00 48 1008.3
20260505083713 74 122 2.0 3.0 0.00 0.00 0.00 50 1008.3
20260505083531 74 131 1.0 3.0 0.00 0.00 0.00 50 1008.3
20260505083433 74 131 1.0 3.0 0.00 0.00 0.00 50 1008.3
20260505083324 74 94 1.0 3.0 0.00 0.00 0.00 50 1008.3
20260505083219 73 92 0.0 4.0 0.00 0.00 0.00 51 1008.4
20260505083122 73 92 0.0 4.0 0.00 0.00 0.00 51 1008.4
20260505082711 73 45 2.0 4.0 0.00 0.00 0.00 50 1008.4
20260505082618 73 45 2.0 4.0 0.00 0.00 0.00 51 1008.4
20260505082549 72 50 1.0 4.0 0.00 0.00 0.00 51 1007.6
20260505082504 73 24 2.0 4.0 0.00 0.00 0.00 51 1008.4
20260505082407 73 23 2.0 4.0 0.00 0.00 0.00 52 1008.4
20260505082309 73 75 2.0 4.0 0.00 0.00 0.00 51 1008.5
20260505082211 72 82 2.0 4.0 0.00 0.00 0.00 52 1008.5
20260505082146 72 82 2.0 4.0 0.00 0.00 0.00 52 1007.6
20260505082102 72 62 2.0 4.0 0.00 0.00 0.00 52 1008.4
20260505082009 72 64 1.0 3.0 0.00 0.00 0.00 52 1008.5
20260505081912 72 61 0.0 3.0 0.00 0.00 0.00 51 1008.5
20260505081814 72 61 1.0 3.0 0.00 0.00 0.00 52 1008.5
20260505081708 72 61 2.0 3.0 0.00 0.00 0.00 52 1008.4
20260505081547 72 61 1.0 3.0 0.00 0.00 0.00 52 1008.5
20260505081450 72 48 1.0 3.0 0.00 0.00 0.00 53 1008.4
20260505081332 72 42 0.0 3.0 0.00 0.00 0.00 56 1008.5
20260505081228 72 42 0.0 3.0 0.00 0.00 0.00 54 1008.5
20260505081132 71 42 0.0 3.0 0.00 0.00 0.00 53 1008.5
20260505081009 71 42 0.0 3.0 0.00 0.00 0.00 54 1008.5
20260505080901 71 42 1.0 4.0 0.00 0.00 0.00 53 1008.5
20260505080755 71 42 1.0 4.0 0.00 0.00 0.00 53 1008.5
20260505080655 71 42 1.0 4.0 0.00 0.00 0.00 54 1008.5
20260505080539 71 42 2.0 4.0 0.00 0.00 0.00 53 1008.5
20260505080422 70 42 2.0 4.0 0.00 0.00 0.00 54 1008.5
20260505080315 70 42 2.0 4.0 0.00 0.00 0.00 54 1008.5
20260505080152 70 38 2.0 4.0 0.00 0.00 0.00 54 1008.5
20260505080053 70 60 2.0 4.0 0.00 0.00 0.00 55 1008.5
20260505075956 70 72 2.0 4.0 0.00 0.00 0.00 55 1008.5
20260505075835 70 51 1.0 4.0 0.00 0.00 0.00 57 1008.5
20260505075737 70 330 1.0 4.0 0.00 0.00 0.00 57 1008.6
20260505075642 69 313 2.0 4.0 0.00 0.00 0.00 56 1008.5
20260505075613 69 313 1.0 4.0 0.00 0.00 0.00 56 1007.7
20260505075532 69 312 3.0 4.0 0.00 0.00 0.00 55 1008.5
20260505075414 69 312 3.0 4.0 0.00 0.00 0.00 55 1008.5
20260505075316 69 313 2.0 4.0 0.00 0.00 0.00 58 1008.5
20260505075209 69 313 1.0 2.0 0.00 0.00 0.00 58 1008.5
20260505075053 69 313 0.0 2.0 0.00 0.00 0.00 59 1008.6
20260505074956 69 313 1.0 2.0 0.00 0.00 0.00 58 1008.6
20260505074859 68 313 1.0 2.0 0.00 0.00 0.00 58 1008.6
20260505074751 68 313 1.0 3.0 0.00 0.00 0.00 59 1008.6
20260505074653 68 313 0.0 3.0 0.00 0.00 0.00 58 1008.6
20260505074535 68 313 0.0 3.0 0.00 0.00 0.00 58 1008.6
20260505074510 67 313 0.0 3.0 0.00 0.00 0.00 58 1007.8
20260505074432 68 313 0.0 3.0 0.00 0.00 0.00 58 1008.6
20260505074335 68 313 1.0 3.0 0.00 0.00 0.00 58 1008.6
20260505074236 67 313 1.0 3.0 0.00 0.00 0.00 58 1008.6
20260505074116 67 313 1.0 3.0 0.00 0.00 0.00 58 1008.6
20260505074051 67 313 1.0 3.0 0.00 0.00 0.00 58 1007.9
20260505074006 67 313 2.0 3.0 0.00 0.00 0.00 59 1008.6
20260505073906 67 313 1.0 4.0 0.00 0.00 0.00 59 1008.6
20260505073636 67 321 0.0 4.0 0.00 0.00 0.00 59 1008.7
20260505073537 67 321 0.0 4.0 0.00 0.00 0.00 59 1008.7
20260505073440 67 321 1.0 4.0 0.00 0.00 0.00 59 1008.7
20260505073343 67 321 2.0 4.0 0.00 0.00 0.00 59 1008.7
20260505073236 66 321 2.0 4.0 0.00 0.00 0.00 58 1008.8
20260505073139 66 321 2.0 4.0 0.00 0.00 0.00 59 1008.7
20260505073043 66 321 2.0 4.0 0.00 0.00 0.00 59 1008.8
20260505072947 66 315 2.0 4.0 0.00 0.00 0.00 59 1008.8
20260505072830 66 333 2.0 4.0 0.00 0.00 0.00 60 1008.8
20260505072721 66 333 3.0 4.0 0.00 0.00 0.00 60 1008.8
20260505072600 66 282 3.0 4.0 0.00 0.00 0.00 60 1008.9
20260505072504 66 314 2.0 4.0 0.00 0.00 0.00 60 1008.9
20260505072359 66 322 1.0 4.0 0.00 0.00 0.00 60 1008.9
20260505072306 66 322 1.0 4.0 0.00 0.00 0.00 60 1008.9
20260505072207 66 322 2.0 4.0 0.00 0.00 0.00 59 1008.9
20260505072011 65 322 1.0 4.0 0.00 0.00 0.00 60 1008.1
20260505071930 66 322 2.0 4.0 0.00 0.00 0.00 59 1008.9
20260505071833 66 322 3.0 4.0 0.00 0.00 0.00 60 1008.9
20260505071735 66 316 2.0 4.0 0.00 0.00 0.00 61 1008.9
20260505071617 65 309 2.0 4.0 0.00 0.00 0.00 60 1008.9
20260505071551 65 293 2.0 4.0 0.00 0.00 0.00 60 1008.2
20260505071513 65 293 3.0 4.0 0.00 0.00 0.00 60 1008.9
20260505071416 65 279 3.0 4.0 0.00 0.00 0.00 60 1008.9
20260505071319 65 277 2.0 4.0 0.00 0.00 0.00 60 1008.9
20260505071221 65 288 3.0 4.0 0.00 0.00 0.00 59 1008.9
20260505071127 65 274 2.0 4.0 0.00 0.00 0.00 59 1008.2
20260505071052 65 274 2.0 4.0 0.00 0.00 0.00 59 1008.9
20260505070955 65 278 1.0 4.0 0.00 0.00 0.00 60 1008.9
20260505070902 65 309 1.0 4.0 0.00 0.00 0.00 60 1008.9
20260505070742 65 309 2.0 4.0 0.00 0.00 0.00 60 1009.0
20260505070647 65 309 2.0 4.0 0.00 0.00 0.00 60 1009.0
20260505070624 64 309 1.0 4.0 0.00 0.00 0.00 60 1008.2
20260505070537 65 307 1.0 4.0 0.00 0.00 0.00 61 1009.0
20260505070438 65 307 1.0 4.0 0.00 0.00 0.00 60 1009.0
20260505070339 65 307 0.0 4.0 0.00 0.00 0.00 61 1009.0
20260505070232 64 307 1.0 4.0 0.00 0.00 0.00 61 1009.0
20260505070139 64 307 1.0 4.0 0.00 0.00 0.00 61 1009.0
20260505070041 64 307 1.0 4.0 0.00 0.00 0.00 62 1009.0
20260505065943 64 323 0.0 3.0 0.00 0.00 0.00 61 1009.0
20260505065838 64 323 1.0 3.0 0.00 0.00 0.00 61 1009.0
20260505065737 64 323 1.0 3.0 0.00 0.00 0.00 61 1009.0
20260505065616 64 266 0.0 0.0 0.00 0.00 0.00 62 1009.0
20260505065516 63 266 0.0 0.0 0.00 0.00 0.00 62 1008.2
20260505065433 63 266 0.0 0.0 0.00 0.00 0.00 64 1009.0
20260505065336 63 266 0.0 0.0 0.00 0.00 0.00 64 1009.0
20260505065238 63 266 0.0 0.0 0.00 0.00 0.00 63 1009.0
20260505065120 63 266 0.0 0.0 0.00 0.00 0.00 62 1009.0
20260505065057 63 266 0.0 0.0 0.00 0.00 0.00 62 1008.3
20260505065011 63 266 0.0 0.0 0.00 0.00 0.00 64 1009.1
20260505064854 63 266 0.0 0.0 0.00 0.00 0.00 64 1009.0
20260505064759 63 266 0.0 0.0 0.00 0.00 0.00 64 1009.0
20260505064704 63 266 0.0 0.0 0.00 0.00 0.00 64 1009.0
20260505064639 62 266 0.0 0.0 0.00 0.00 0.00 64 1008.4
20260505064554 62 266 0.0 0.0 0.00 0.00 0.00 64 1009.1
20260505064456 62 266 0.0 0.0 0.00 0.00 0.00 65 1009.1
20260505064359 62 266 0.0 0.0 0.00 0.00 0.00 65 1009.1
20260505064253 62 266 0.0 0.0 0.00 0.00 0.00 65 1009.1
20260505064154 62 266 0.0 0.0 0.00 0.00 0.00 65 1009.1
20260505064038 62 266 0.0 0.0 0.00 0.00 0.00 66 1009.1
20260505063919 61 266 0.0 0.0 0.00 0.00 0.00 66 1009.1
20260505063821 61 266 0.0 0.0 0.00 0.00 0.00 67 1009.1
20260505063716 61 265 0.0 0.0 0.00 0.00 0.00 67 1009.1
20260505063619 61 265 0.0 0.0 0.00 0.00 0.00 67 1009.1
20260505063519 61 265 0.0 0.0 0.00 0.00 0.00 67 1009.1
20260505063426 61 265 0.0 0.0 0.00 0.00 0.00 68 1009.1
20260505063300 60 266 0.0 0.0 0.00 0.00 0.00 69 1009.1
20260505063139 60 265 0.0 0.0 0.00 0.00 0.00 70 1009.1
20260505063039 59 265 0.0 0.0 0.00 0.00 0.00 70 1009.1
20260505062920 59 265 0.0 0.0 0.00 0.00 0.00 71 1009.1
20260505062733 59 265 0.0 0.0 0.00 0.00 0.00 71 1009.1
20260505062639 59 265 0.0 0.0 0.00 0.00 0.00 71 1009.0
20260505062541 59 265 0.0 0.0 0.00 0.00 0.00 71 1009.1
20260505062519 58 265 0.0 0.0 0.00 0.00 0.00 71 1008.4
20260505062433 58 265 0.0 0.0 0.00 0.00 0.00 71 1009.1
20260505062314 58 281 0.0 0.0 0.00 0.00 0.00 72 1009.1
20260505062155 58 281 0.0 0.0 0.00 0.00 0.00 73 1009.1
20260505062056 57 281 0.0 0.0 0.00 0.00 0.00 73 1008.4
20260505062024 58 281 0.0 0.0 0.00 0.00 0.00 73 1009.1
20260505061927 58 281 0.0 0.0 0.00 0.00 0.00 72 1009.1
20260505061813 58 281 0.0 0.0 0.00 0.00 0.00 72 1009.1
20260505061715 58 296 0.0 0.0 0.00 0.00 0.00 72 1009.1
20260505061619 58 296 0.0 0.0 0.00 0.00 0.00 73 1009.2
20260505061555 57 296 0.0 0.0 0.00 0.00 0.00 73 1008.4
20260505061510 57 301 0.0 0.0 0.00 0.00 0.00 73 1009.1
20260505061414 57 301 0.0 0.0 0.00 0.00 0.00 73 1009.1
20260505061317 57 301 0.0 0.0 0.00 0.00 0.00 74 1009.1
20260505061220 57 301 0.0 0.0 0.00 0.00 0.00 73 1009.2
20260505061155 57 301 0.0 0.0 0.00 0.00 0.00 73 1008.5
20260505061112 57 301 0.0 0.0 0.00 0.00 0.00 73 1009.2
20260505061014 57 301 0.0 0.0 0.00 0.00 0.00 73 1009.2
20260505060918 57 301 0.0 0.0 0.00 0.00 0.00 74 1009.2
20260505060749 57 301 0.0 0.0 0.00 0.00 0.00 74 1009.2
20260505060652 57 301 0.0 0.0 0.00 0.00 0.00 74 1009.2
20260505060553 57 301 0.0 0.0 0.00 0.00 0.00 75 1009.2
20260505060458 57 301 0.0 0.0 0.00 0.00 0.00 75 1009.2
20260505060332 56 301 0.0 0.0 0.00 0.00 0.00 75 1009.2
20260505060234 56 301 0.0 0.0 0.00 0.00 0.00 75 1009.2
20260505060113 56 301 0.0 0.0 0.00 0.00 0.00 76 1009.3
20260505060042 56 301 0.0 0.0 0.00 0.00 0.00 76 1008.5
20260505060004 56 301 0.0 0.0 0.00 0.00 0.00 76 1009.2
20260505055906 56 301 0.0 0.0 0.00 0.00 0.00 77 1009.2
20260505055814 56 301 0.0 0.0 0.00 0.00 0.00 77 1009.1
20260505055655 56 301 0.0 0.0 0.00 0.00 0.00 76 1009.2
20260505055629 55 301 0.0 0.0 0.00 0.00 0.00 76 1008.5
20260505055547 56 301 0.0 0.0 0.00 0.00 0.00 76 1009.1
20260505055450 56 301 0.0 0.0 0.00 0.00 0.00 76 1009.1
20260505055353 56 301 0.0 0.0 0.00 0.00 0.00 76 1009.1
20260505055257 55 301 0.0 0.0 0.00 0.00 0.00 77 1009.1
20260505055134 55 184 0.0 0.0 0.00 0.00 0.00 78 1009.1
20260505055035 55 89 0.0 0.0 0.00 0.00 0.00 78 1009.2
20260505055003 54 89 0.0 0.0 0.00 0.00 0.00 79 1008.5
20260505054908 55 89 0.0 0.0 0.00 0.00 0.00 79 1009.2
20260505054808 54 89 0.0 0.0 0.00 0.00 0.00 80 1009.2
20260505054710 54 89 0.0 0.0 0.00 0.00 0.00 80 1009.2
20260505054613 54 89 0.0 0.0 0.00 0.00 0.00 81 1009.1
20260505054548 53 89 0.0 0.0 0.00 0.00 0.00 82 1008.5
20260505054509 54 89 0.0 0.0 0.00 0.00 0.00 82 1009.2
20260505054412 54 89 0.0 0.0 0.00 0.00 0.00 82 1009.2
20260505054315 53 89 0.0 0.0 0.00 0.00 0.00 82 1009.1
20260505054153 53 89 0.0 0.0 0.00 0.00 0.00 83 1009.2
20260505054119 52 89 0.0 0.0 0.00 0.00 0.00 83 1008.5
20260505054044 53 89 0.0 0.0 0.00 0.00 0.00 84 1009.2
20260505053945 52 89 0.0 0.0 0.00 0.00 0.00 85 1009.2
20260505053846 52 89 0.0 0.0 0.00 0.00 0.00 86 1009.2
20260505053710 51 89 0.0 0.0 0.00 0.00 0.00 87 1009.2
20260505053615 51 89 0.0 0.0 0.00 0.00 0.00 87 1009.2
20260505053550 50 89 0.0 0.0 0.00 0.00 0.00 87 1008.5
20260505053507 50 89 0.0 0.0 0.00 0.00 0.00 87 1009.2
20260505053411 50 89 0.0 0.0 0.00 0.00 0.00 88 1009.2
20260505053251 50 89 0.0 0.0 0.00 0.00 0.00 88 1009.2
20260505053145 49 89 0.0 0.0 0.00 0.00 0.00 88 1009.2
20260505053050 49 89 0.0 0.0 0.00 0.00 0.00 88 1009.2
20260505052953 49 89 0.0 0.0 0.00 0.00 0.00 88 1009.2
20260505052856 49 89 0.0 0.0 0.00 0.00 0.00 88 1009.2
20260505052750 49 89 0.0 0.0 0.00 0.00 0.00 87 1009.2
20260505052653 49 89 0.0 0.0 0.00 0.00 0.00 87 1009.2
20260505052554 48 89 0.0 0.0 0.00 0.00 0.00 87 1009.2
20260505052436 48 89 0.0 0.0 0.00 0.00 0.00 87 1009.2
20260505052324 48 89 0.0 0.0 0.00 0.00 0.00 87 1009.2
20260505052156 48 89 0.0 0.0 0.00 0.00 0.00 87 1009.2
20260505052057 48 89 0.0 0.0 0.00 0.00 0.00 87 1009.2
20260505051959 48 89 0.0 0.0 0.00 0.00 0.00 87 1009.2
20260505051841 48 89 0.0 0.0 0.00 0.00 0.00 87 1009.3
20260505051713 48 89 0.0 0.0 0.00 0.00 0.00 87 1009.3
20260505051557 48 89 0.0 0.0 0.00 0.00 0.00 87 1009.3
20260505051438 48 89 0.0 0.0 0.00 0.00 0.00 87 1009.3
20260505051321 48 89 0.0 0.0 0.00 0.00 0.00 87 1009.3
20260505051213 48 89 0.0 0.0 0.00 0.00 0.00 87 1009.2
20260505051052 48 89 0.0 0.0 0.00 0.00 0.00 87 1009.3
20260505050956 48 89 0.0 0.0 0.00 0.00 0.00 87 1009.3
20260505050900 48 89 0.0 0.0 0.00 0.00 0.00 87 1009.3
20260505050759 48 89 0.0 0.0 0.00 0.00 0.00 87 1009.3
20260505050701 48 89 0.0 0.0 0.00 0.00 0.00 87 1009.3
20260505050601 48 89 0.0 0.0 0.00 0.00 0.00 87 1009.3
20260505050501 48 89 0.0 0.0 0.00 0.00 0.00 87 1009.2
20260505050354 48 89 0.0 0.0 0.00 0.00 0.00 87 1009.3
20260505050235 48 89 0.0 0.0 0.00 0.00 0.00 87 1009.3
20260505050143 48 89 0.0 0.0 0.00 0.00 0.00 87 1009.2
20260505041717 48 89 0.0 0.0 0.00 0.00 0.00 86 1008.9
20260505041619 48 89 0.0 0.0 0.00 0.00 0.00 86 1009.0
20260505041520 48 89 0.0 0.0 0.00 0.00 0.00 86 1009.0
20260505041423 48 89 0.0 0.0 0.00 0.00 0.00 86 1008.9
20260505041317 48 89 0.0 0.0 0.00 0.00 0.00 86 1008.9
20260505041156 48 89 0.0 0.0 0.00 0.00 0.00 86 1008.9
20260505041102 48 89 0.0 0.0 0.00 0.00 0.00 86 1008.9
20260505041005 48 89 0.0 0.0 0.00 0.00 0.00 85 1008.9
20260505040858 48 89 0.0 0.0 0.00 0.00 0.00 85 1008.8
20260505040801 48 89 0.0 0.0 0.00 0.00 0.00 85 1008.8
20260505040703 48 89 0.0 0.0 0.00 0.00 0.00 85 1008.8
20260505040625 47 89 0.0 0.0 0.00 0.00 0.00 85 1008.1
20260505040534 48 89 0.0 0.0 0.00 0.00 0.00 85 1008.8
20260505040442 48 89 0.0 0.0 0.00 0.00 0.00 85 1008.8
20260505040345 48 89 0.0 0.0 0.00 0.00 0.00 85 1008.8
20260505040248 48 89 0.0 0.0 0.00 0.00 0.00 85 1008.8
20260505040142 48 89 0.0 0.0 0.00 0.00 0.00 85 1008.8
20260505040042 48 89 0.0 0.0 0.00 0.00 0.00 85 1008.8
20260505035945 48 89 0.0 0.0 0.00 0.00 0.00 85 1008.7
20260505035850 48 89 0.0 0.0 0.00 0.00 0.00 85 1008.8
20260505035554 48 89 0.0 0.0 0.00 0.00 0.00 85 1008.8
20260505035457 48 89 0.0 0.0 0.00 0.00 0.00 85 1008.8
20260505035329 48 89 0.0 0.0 0.00 0.00 0.00 84 1008.8
20260505035209 48 89 0.0 0.0 0.00 0.00 0.00 84 1008.8
20260505035113 48 89 0.0 0.0 0.00 0.00 0.00 84 1008.8
20260505035014 48 89 0.0 0.0 0.00 0.00 0.00 84 1008.8
20260505034913 48 89 0.0 0.0 0.00 0.00 0.00 84 1008.8
20260505034815 48 89 0.0 0.0 0.00 0.00 0.00 84 1008.8
20260505034656 48 89 0.0 0.0 0.00 0.00 0.00 84 1008.8
20260505034557 48 89 0.0 0.0 0.00 0.00 0.00 84 1008.8
20260505034533 47 89 0.0 0.0 0.00 0.00 0.00 84 1008.1
20260505034451 48 89 0.0 0.0 0.00 0.00 0.00 84 1008.8
20260505034355 48 89 0.0 0.0 0.00 0.00 0.00 84 1008.8
20260505034218 48 89 0.0 0.0 0.00 0.00 0.00 84 1008.8
20260505034118 48 89 0.0 0.0 0.00 0.00 0.00 84 1008.8
20260505034031 48 89 0.0 0.0 0.00 0.00 0.00 84 1008.1
20260505033949 48 89 0.0 0.0 0.00 0.00 0.00 84 1008.8
20260505033832 48 89 0.0 0.0 0.00 0.00 0.00 84 1008.8
20260505033726 48 89 0.0 0.0 0.00 0.00 0.00 84 1008.8
20260505033627 48 89 0.0 0.0 0.00 0.00 0.00 84 1008.9
20260505033511 48 89 0.0 0.0 0.00 0.00 0.00 84 1008.8
20260505033350 48 89 0.0 0.0 0.00 0.00 0.00 84 1008.8
20260505033254 48 89 0.0 0.0 0.00 0.00 0.00 84 1008.8
20260505033148 48 89 0.0 0.0 0.00 0.00 0.00 84 1008.9
20260505033049 48 89 0.0 0.0 0.00 0.00 0.00 83 1008.8
20260505032953 48 89 0.0 0.0 0.00 0.00 0.00 84 1008.9
20260505032847 48 89 0.0 0.0 0.00 0.00 0.00 84 1008.8
20260505032754 48 89 0.0 0.0 0.00 0.00 0.00 84 1008.9
20260505032657 49 89 0.0 0.0 0.00 0.00 0.00 84 1008.9
20260505032558 49 89 0.0 0.0 0.00 0.00 0.00 84 1008.9
20260505032501 49 89 0.0 0.0 0.00 0.00 0.00 84 1008.9
20260505032354 49 89 0.0 0.0 0.00 0.00 0.00 83 1008.9
20260505032128 49 89 0.0 0.0 0.00 0.00 0.00 83 1008.9
20260505032037 48 89 0.0 0.0 0.00 0.00 0.00 83 1008.2
20260505032003 49 89 0.0 0.0 0.00 0.00 0.00 83 1008.9
20260505031906 49 89 0.0 0.0 0.00 0.00 0.00 82 1008.9
20260505031748 49 89 0.0 0.0 0.00 0.00 0.00 82 1008.9
20260505031652 49 89 0.0 0.0 0.00 0.00 0.00 82 1008.9
20260505031621 48 89 0.0 0.0 0.00 0.00 0.00 82 1008.2
20260505031544 49 89 0.0 0.0 0.00 0.00 0.00 82 1008.9
20260505031448 49 89 0.0 0.0 0.00 0.00 0.00 82 1009.0
20260505031354 49 89 0.0 0.0 0.00 0.00 0.00 82 1009.0
20260505031256 49 89 0.0 0.0 0.00 0.00 0.00 82 1009.0
20260505031150 49 89 0.0 0.0 0.00 0.00 0.00 82 1009.0
20260505031050 49 89 0.0 0.0 0.00 0.00 0.00 82 1008.9
20260505030934 49 89 0.0 0.0 0.00 0.00 0.00 82 1008.9
20260505030806 49 89 0.0 0.0 0.00 0.00 0.00 82 1008.9
20260505030714 49 89 0.0 0.0 0.00 0.00 0.00 82 1009.0
20260505030445 49 89 0.0 0.0 0.00 0.00 0.00 82 1009.0
20260505030340 49 89 0.0 0.0 0.00 0.00 0.00 82 1009.0
20260505030220 49 89 0.0 0.0 0.00 0.00 0.00 82 1009.0
20260505030059 49 89 0.0 0.0 0.00 0.00 0.00 82 1008.9
20260505030004 49 89 0.0 0.0 0.00 0.00 0.00 82 1008.9
20260505025839 49 89 0.0 0.0 0.00 0.00 0.00 82 1009.0
20260505025743 50 89 0.0 0.0 0.00 0.00 0.00 82 1008.9
20260505025645 50 89 0.0 0.0 0.00 0.00 0.00 82 1009.0
20260505025525 50 89 0.0 0.0 0.00 0.00 0.00 82 1009.0
20260505025357 50 89 0.0 0.0 0.00 0.00 0.00 82 1009.0
20260505025258 50 89 0.0 0.0 0.00 0.00 0.00 82 1009.0
20260505025141 50 89 0.0 0.0 0.00 0.00 0.00 82 1009.0
20260505025046 50 89 0.0 0.0 0.00 0.00 0.00 82 1009.0
20260505025021 49 89 0.0 0.0 0.00 0.00 0.00 82 1008.3
20260505024917 50 89 0.0 0.0 0.00 0.00 0.00 82 1009.0
20260505024818 50 89 0.0 0.0 0.00 0.00 0.00 82 1009.0
20260505024722 50 89 0.0 0.0 0.00 0.00 0.00 82 1009.0
20260505024645 49 89 0.0 0.0 0.00 0.00 0.00 82 1008.4
20260505024613 50 89 0.0 0.0 0.00 0.00 0.00 82 1009.0
20260505024434 50 89 0.0 0.0 0.00 0.00 0.00 82 1009.0
20260505024340 50 89 0.0 0.0 0.00 0.00 0.00 82 1009.1
20260505024241 50 89 0.0 0.0 0.00 0.00 0.00 82 1009.0
20260505024149 49 89 0.0 0.0 0.00 0.00 0.00 82 1008.3
20260505024114 50 89 0.0 0.0 0.00 0.00 0.00 82 1009.0
20260505024015 50 89 0.0 0.0 0.00 0.00 0.00 82 1009.1
20260505023919 50 89 0.0 0.0 0.00 0.00 0.00 82 1009.1
20260505023822 50 89 0.0 0.0 0.00 0.00 0.00 81 1009.1
20260505023716 50 89 0.0 0.0 0.00 0.00 0.00 81 1009.1
20260505023623 50 89 0.0 0.0 0.00 0.00 0.00 81 1009.1
20260505023523 50 89 0.0 0.0 0.00 0.00 0.00 81 1009.1
20260505023426 50 89 0.0 0.0 0.00 0.00 0.00 81 1009.1
20260505023319 50 89 0.0 0.0 0.00 0.00 0.00 81 1009.1
20260505023049 50 89 0.0 0.0 0.00 0.00 0.00 81 1009.1
20260505023015 50 89 0.0 0.0 0.00 0.00 0.00 81 1008.4
20260505022944 50 89 0.0 0.0 0.00 0.00 0.00 81 1009.1
20260505022852 50 89 0.0 0.0 0.00 0.00 0.00 81 1009.1
20260505022733 50 89 0.0 0.0 0.00 0.00 0.00 81 1009.1
20260505022635 50 89 0.0 0.0 0.00 0.00 0.00 81 1009.1
20260505022515 50 89 0.0 0.0 0.00 0.00 0.00 81 1009.1
20260505022407 50 89 0.0 0.0 0.00 0.00 0.00 80 1009.1
20260505022311 51 89 0.0 0.0 0.00 0.00 0.00 80 1009.1
20260505022152 51 89 0.0 0.0 0.00 0.00 0.00 80 1009.1
20260505022031 51 89 0.0 0.0 0.00 0.00 0.00 80 1009.2
20260505022008 50 89 0.0 0.0 0.00 0.00 0.00 80 1008.5
20260505021924 51 89 0.0 0.0 0.00 0.00 0.00 80 1009.1
20260505021826 51 89 0.0 0.0 0.00 0.00 0.00 80 1009.2
20260505021731 51 89 0.0 0.0 0.00 0.00 0.00 80 1009.2
20260505021702 50 89 0.0 0.0 0.00 0.00 0.00 80 1008.5
20260505021624 51 89 0.0 0.0 0.00 0.00 0.00 80 1009.2
20260505021402 51 89 0.0 0.0 0.00 0.00 0.00 80 1009.2
20260505021244 51 89 0.0 0.0 0.00 0.00 0.00 80 1009.2
20260505021138 51 89 0.0 0.0 0.00 0.00 0.00 80 1009.2
20260505021016 51 89 0.0 0.0 0.00 0.00 0.00 79 1009.2
20260505020919 51 89 0.0 0.0 0.00 0.00 0.00 79 1009.3
20260505020813 51 89 0.0 0.0 0.00 0.00 0.00 79 1009.3
20260505020656 51 89 0.0 0.0 0.00 0.00 0.00 79 1009.4
20260505020601 51 89 0.0 0.0 0.00 0.00 0.00 79 1009.4
20260505020503 51 89 0.0 0.0 0.00 0.00 0.00 79 1009.4
20260505020357 51 89 0.0 0.0 0.00 0.00 0.00 79 1009.3
20260505020300 51 89 0.0 0.0 0.00 0.00 0.00 79 1009.4
20260505020200 52 89 0.0 0.0 0.00 0.00 0.00 79 1009.4
20260505020059 52 89 0.0 0.0 0.00 0.00 0.00 79 1009.4
20260505020028 51 89 0.0 0.0 0.00 0.00 0.00 78 1008.6
20260505015956 52 89 0.0 0.0 0.00 0.00 0.00 78 1009.4
20260505015859 52 89 0.0 0.0 0.00 0.00 0.00 78 1009.4
20260505015635 52 89 0.0 0.0 0.00 0.00 0.00 79 1009.5
20260505015553 51 89 0.0 0.0 0.00 0.00 0.00 79 1008.7
20260505015506 52 89 0.0 0.0 0.00 0.00 0.00 79 1009.5
20260505015408 52 89 0.0 0.0 0.00 0.00 0.00 79 1009.4
20260505015311 52 89 0.0 0.0 0.00 0.00 0.00 79 1009.4
20260505015157 52 89 0.0 1.0 0.00 0.00 0.00 79 1009.4
20260505015057 52 89 0.0 2.0 0.00 0.00 0.00 79 1009.4
20260505015000 52 89 0.0 2.0 0.00 0.00 0.00 79 1009.4
20260505014902 52 89 0.0 2.0 0.00 0.00 0.00 79 1009.4
20260505014756 52 89 0.0 2.0 0.00 0.00 0.00 79 1009.4
20260505014700 52 89 0.0 3.0 0.00 0.00 0.00 79 1009.4
20260505014538 52 89 0.0 4.0 0.00 0.00 0.00 79 1009.4
20260505014446 52 89 0.0 4.0 0.00 0.00 0.00 79 1009.4
20260505014339 52 89 1.0 4.0 0.00 0.00 0.00 79 1009.5
20260505014236 52 89 1.0 4.0 0.00 0.00 0.00 79 1009.5
20260505014138 52 89 1.0 4.0 0.00 0.00 0.00 79 1009.5
20260505014038 52 89 1.0 4.0 0.00 0.00 0.00 79 1009.4
20260505013941 52 89 2.0 4.0 0.00 0.00 0.00 79 1009.4
20260505013839 52 89 2.0 5.0 0.00 0.00 0.00 79 1009.5
20260505013742 52 88 2.0 5.0 0.00 0.00 0.00 79 1009.5
20260505013624 52 88 3.0 5.0 0.00 0.00 0.00 79 1009.5
20260505013504 52 88 3.0 5.0 0.00 0.00 0.00 78 1009.5
20260505013359 52 80 3.0 5.0 0.00 0.00 0.00 78 1009.5
20260505013302 53 78 3.0 5.0 0.00 0.00 0.00 78 1009.5
20260505013143 53 76 3.0 5.0 0.00 0.00 0.00 78 1009.5
20260505013048 53 76 3.0 5.0 0.00 0.00 0.00 78 1009.5
20260505013006 52 93 2.0 4.0 0.00 0.00 0.00 78 1008.7
20260505012920 53 97 3.0 4.0 0.00 0.00 0.00 78 1009.5
20260505012822 53 97 3.0 4.0 0.00 0.00 0.00 77 1009.6
20260505012725 53 97 2.0 3.0 0.00 0.00 0.00 77 1009.5
20260505012649 52 97 2.0 3.0 0.00 0.00 0.00 77 1008.8
20260505012555 53 97 1.0 2.0 0.00 0.00 0.00 77 1009.5
20260505012456 53 97 1.0 2.0 0.00 0.00 0.00 77 1009.6
20260505012401 53 97 0.0 2.0 0.00 0.00 0.00 77 1009.6
20260505012304 53 97 0.0 0.0 0.00 0.00 0.00 77 1009.6
20260505012152 53 97 0.0 0.0 0.00 0.00 0.00 77 1009.7
20260505012054 53 97 0.0 0.0 0.00 0.00 0.00 77 1009.7
20260505011957 53 97 0.0 2.0 0.00 0.00 0.00 77 1009.7
20260505011858 53 97 0.0 3.0 0.00 0.00 0.00 77 1009.7
20260505011737 53 97 0.0 3.0 0.00 0.00 0.00 77 1009.7
20260505011619 53 97 0.0 3.0 0.00 0.00 0.00 77 1009.7
20260505011520 53 97 0.0 3.0 0.00 0.00 0.00 77 1009.7
20260505011413 53 97 0.0 3.0 0.00 0.00 0.00 77 1009.7
20260505011316 53 97 0.0 4.0 0.00 0.00 0.00 77 1009.7
20260505011213 53 97 1.0 4.0 0.00 0.00 0.00 77 1009.7
20260505011053 53 97 2.0 4.0 0.00 0.00 0.00 77 1009.7
20260505011029 52 97 1.0 4.0 0.00 0.00 0.00 77 1008.9
20260505010932 53 97 2.0 4.0 0.00 0.00 0.00 78 1009.7
20260505010835 53 97 2.0 4.0 0.00 0.00 0.00 78 1009.7
20260505010727 53 97 2.0 4.0 0.00 0.00 0.00 78 1009.7
20260505010630 53 97 2.0 4.0 0.00 0.00 0.00 78 1009.8
20260505010531 53 97 3.0 4.0 0.00 0.00 0.00 78 1009.8
20260505010434 53 97 3.0 4.0 0.00 0.00 0.00 78 1009.8
20260505010320 53 97 3.0 4.0 0.00 0.00 0.00 78 1009.8
20260505010206 52 97 3.0 4.0 0.00 0.00 0.00 78 1009.8
20260505010110 52 97 3.0 4.0 0.00 0.00 0.00 78 1009.8
20260505010011 52 97 3.0 3.0 0.00 0.00 0.00 78 1009.8
20260505005905 52 97 2.0 3.0 0.00 0.00 0.00 78 1009.8
20260505005808 52 97 2.0 3.0 0.00 0.00 0.00 78 1009.8
20260505005715 52 97 1.0 2.0 0.00 0.00 0.00 78 1009.8
20260505005618 52 97 1.0 2.0 0.00 0.00 0.00 79 1009.8
20260505005549 52 97 0.0 2.0 0.00 0.00 0.00 79 1009.0
20260505005510 52 97 1.0 2.0 0.00 0.00 0.00 79 1009.8
20260505005412 52 97 0.0 1.0 0.00 0.00 0.00 79 1009.7
20260505005315 52 97 0.0 2.0 0.00 0.00 0.00 79 1009.7
20260505005209 52 97 0.0 2.0 0.00 0.00 0.00 79 1009.8
20260505005141 51 97 0.0 2.0 0.00 0.00 0.00 79 1009.0
20260505005038 52 97 0.0 2.0 0.00 0.00 0.00 79 1009.8
20260505004944 52 97 0.0 2.0 0.00 0.00 0.00 79 1009.8
20260505004827 52 97 0.0 2.0 0.00 0.00 0.00 79 1009.8
20260505004728 52 97 0.0 3.0 0.00 0.00 0.00 79 1009.9
20260505004600 52 97 1.0 3.0 0.00 0.00 0.00 79 1009.9
20260505004503 52 97 2.0 3.0 0.00 0.00 0.00 79 1009.9
20260505004406 52 97 2.0 3.0 0.00 0.00 0.00 79 1009.8
20260505004314 52 97 1.0 3.0 0.00 0.00 0.00 79 1009.9
20260505004201 52 97 2.0 3.0 0.00 0.00 0.00 79 1009.9
20260505004101 51 97 1.0 3.0 0.00 0.00 0.00 80 1009.9
20260505004003 51 97 1.0 3.0 0.00 0.00 0.00 80 1009.9
20260505003845 51 97 0.0 3.0 0.00 0.00 0.00 80 1009.9
20260505003715 51 97 1.0 3.0 0.00 0.00 0.00 81 1009.9
20260505003618 51 97 2.0 3.0 0.00 0.00 0.00 81 1009.9
20260505003524 51 97 1.0 3.0 0.00 0.00 0.00 81 1010.0
20260505003418 51 97 1.0 4.0 0.00 0.00 0.00 81 1010.0
20260505003249 51 97 1.0 4.0 0.00 0.00 0.00 81 1010.0
20260505003130 51 97 1.0 4.0 0.00 0.00 0.00 81 1010.0
20260505003030 51 97 2.0 4.0 0.00 0.00 0.00 82 1010.0
20260505002841 51 97 1.0 4.0 0.00 0.00 0.00 82 1010.0
20260505002748 51 97 0.0 4.0 0.00 0.00 0.00 81 1010.0
20260505002651 51 97 1.0 4.0 0.00 0.00 0.00 82 1010.0
20260505002552 51 97 2.0 4.0 0.00 0.00 0.00 82 1010.0
20260505002533 50 97 1.0 4.0 0.00 0.00 0.00 81 1009.2
20260505002447 51 97 1.0 6.0 0.00 0.00 0.00 81 1010.0
20260505002349 51 97 0.0 6.0 0.00 0.00 0.00 81 1010.0
20260505002246 51 97 2.0 6.0 0.00 0.00 0.00 81 1010.1
20260505002152 50 97 2.0 6.0 0.00 0.00 0.00 81 1009.3
20260505002118 51 97 3.0 6.0 0.00 0.00 0.00 81 1010.0
20260505002023 51 97 2.0 6.0 0.00 0.00 0.00 81 1010.0
20260505001926 51 98 1.0 6.0 0.00 0.00 0.00 81 1010.0
20260505001806 51 98 3.0 6.0 0.00 0.00 0.00 81 1010.1
20260505001701 51 95 4.0 6.0 0.00 0.00 0.00 81 1010.0
20260505001601 51 89 3.0 4.0 0.00 0.00 0.00 81 1010.0
20260505001443 51 97 2.0 4.0 0.00 0.00 0.00 81 1010.0
20260505001350 51 97 1.0 4.0 0.00 0.00 0.00 80 1010.1
20260505001234 51 97 2.0 4.0 0.00 0.00 0.00 80 1010.1
20260505001138 51 97 2.0 4.0 0.00 0.00 0.00 80 1010.0
20260505001040 51 93 1.0 4.0 0.00 0.00 0.00 80 1010.1
20260505000942 51 93 0.0 4.0 0.00 0.00 0.00 80 1010.0
20260505000836 51 93 0.0 4.0 0.00 0.00 0.00 80 1010.1
20260505000740 51 93 0.0 4.0 0.00 0.00 0.00 80 1010.1
20260505000626 51 93 1.0 4.0 0.00 0.00 0.00 80 1010.0
20260505000528 51 93 2.0 4.0 0.00 0.00 0.00 80 1010.0
20260505000423 51 93 3.0 4.0 0.00 0.00 0.00 80 1010.1
20260505000325 51 93 2.0 4.0 0.00 0.00 0.00 79 1010.1
20260505000223 51 93 1.0 3.0 0.00 0.00 0.00 79 1010.1
20260505000125 51 309 0.0 1.0 0.00 0.00 0.00 79 1010.0
20260505000105 50 309 0.0 0.0 0.00 0.00 0.00 79 1009.3
20260505000020 51 309 0.0 0.0 0.00 0.00 0.00 78 1010.0
20260504235920 51 309 0.0 0.0 0.00 0.00 0.00 78 1010.0
20260504235822 51 309 0.0 0.0 0.00 0.00 0.00 78 1010.0
20260504235726 51 309 0.0 0.0 0.00 0.00 0.00 78 1010.1
20260504235659 51 309 0.0 1.0 0.00 0.00 0.00 78 1009.3
20260504235617 51 309 0.0 2.0 0.00 0.00 0.00 78 1010.0
20260504235437 51 309 0.0 2.0 0.00 0.00 0.00 78 1010.0
20260504235340 51 309 0.0 3.0 0.00 0.00 0.00 78 1010.0
20260504235220 51 309 0.0 5.0 0.00 0.00 0.00 78 1010.0
20260504235150 51 309 0.0 5.0 0.00 0.00 0.00 78 1009.3
20260504235115 51 309 0.0 5.0 0.00 0.00 0.00 78 1010.1
20260504235014 51 309 0.0 5.0 0.00 0.00 0.00 78 1010.1
20260504234917 51 309 1.0 5.0 0.00 0.00 0.00 78 1010.0
20260504234821 51 309 1.0 5.0 0.00 0.00 0.00 78 1010.0
20260504234716 51 309 1.0 5.0 0.00 0.00 0.00 78 1010.0
20260504234558 51 309 2.0 5.0 0.00 0.00 0.00 78 1010.0
20260504234502 51 309 2.0 5.0 0.00 0.00 0.00 78 1010.0
20260504234406 51 313 1.0 4.0 0.00 0.00 0.00 78 1010.0
20260504234259 52 62 2.0 3.0 0.00 0.00 0.00 78 1010.0
20260504234201 52 89 1.0 3.0 0.00 0.00 0.00 77 1010.0
20260504234100 52 89 0.0 1.0 0.00 0.00 0.00 77 1010.1
20260504234004 52 89 0.0 0.0 0.00 0.00 0.00 77 1010.1
20260504233901 52 89 0.0 0.0 0.00 0.00 0.00 77 1010.1
20260504233805 52 89 0.0 0.0 0.00 0.00 0.00 77 1010.1
20260504233708 52 89 0.0 0.0 0.00 0.00 0.00 76 1010.1
20260504233611 52 89 0.0 0.0 0.00 0.00 0.00 76 1010.1
20260504233541 51 89 0.0 0.0 0.00 0.00 0.00 76 1009.3
20260504233503 52 89 0.0 0.0 0.00 0.00 0.00 76 1010.1
20260504233345 52 89 0.0 0.0 0.00 0.00 0.00 76 1010.1
20260504233252 52 89 0.0 0.0 0.00 0.00 0.00 76 1010.1
20260504233147 52 89 0.0 0.0 0.00 0.00 0.00 76 1010.1
20260504233045 52 89 0.0 0.0 0.00 0.00 0.00 76 1010.0
20260504232906 52 89 0.0 0.0 0.00 0.00 0.00 75 1010.0
20260504232810 52 89 0.0 0.0 0.00 0.00 0.00 75 1009.9
20260504232705 52 89 0.0 0.0 0.00 0.00 0.00 75 1009.9
20260504232607 52 89 0.0 0.0 0.00 0.00 0.00 75 1010.0
20260504232335 52 89 0.0 0.0 0.00 0.00 0.00 75 1010.0
20260504232236 53 89 0.0 0.0 0.00 0.00 0.00 75 1010.1
20260504232138 53 89 0.0 0.0 0.00 0.00 0.00 75 1010.0
20260504232040 53 89 0.0 0.0 0.00 0.00 0.00 75 1010.1
20260504232017 52 89 0.0 0.0 0.00 0.00 0.00 75 1009.3
20260504231934 53 89 0.0 0.0 0.00 0.00 0.00 75 1010.0
20260504231838 53 89 0.0 0.0 0.00 0.00 0.00 75 1010.0
20260504231745 53 89 0.0 0.0 0.00 0.00 0.00 75 1010.1
20260504231640 53 89 0.0 0.0 0.00 0.00 0.00 76 1010.0
20260504231520 53 89 0.0 0.0 0.00 0.00 0.00 76 1010.0
20260504231424 53 89 0.0 0.0 0.00 0.00 0.00 76 1009.9
20260504231328 53 89 0.0 0.0 0.00 0.00 0.00 75 1010.0
20260504231216 53 89 0.0 0.0 0.00 0.00 0.00 75 1010.0
20260504231123 53 89 0.0 0.0 0.00 0.00 0.00 75 1010.0
20260504231025 53 89 0.0 0.0 0.00 0.00 0.00 75 1010.0
20260504230920 53 89 0.0 0.0 0.00 0.00 0.00 75 1010.0
20260504230823 53 89 0.0 0.0 0.00 0.00 0.00 75 1010.0
20260504230704 53 89 0.0 0.0 0.00 0.00 0.00 74 1010.0
20260504230631 53 89 0.0 0.0 0.00 0.00 0.00 74 1009.1
20260504230557 53 89 0.0 0.0 0.00 0.00 0.00 74 1010.0
20260504230459 53 89 0.0 0.0 0.00 0.00 0.00 74 1010.0
20260504230406 54 89 0.0 0.0 0.00 0.00 0.00 75 1010.0
20260504230309 54 89 0.0 0.0 0.00 0.00 0.00 74 1010.0
20260504230200 54 89 0.0 0.0 0.00 0.00 0.00 74 1010.0
20260504230101 54 89 0.0 0.0 0.00 0.00 0.00 74 1010.1
20260504230005 54 89 0.0 0.0 0.00 0.00 0.00 74 1010.1
20260504225859 54 89 0.0 0.0 0.00 0.00 0.00 74 1010.0
20260504225745 54 89 0.0 0.0 0.00 0.00 0.00 74 1010.1
20260504225648 54 89 0.0 0.0 0.00 0.00 0.00 74 1010.0
20260504225550 54 89 0.0 0.0 0.00 0.00 0.00 74 1010.1
20260504225528 53 89 0.0 0.0 0.00 0.00 0.00 74 1009.3
20260504225443 54 89 0.0 0.0 0.00 0.00 0.00 74 1010.1
20260504225325 54 89 0.0 0.0 0.00 0.00 0.00 75 1010.0
20260504225227 54 89 0.0 0.0 0.00 0.00 0.00 75 1010.0
20260504225159 54 89 0.0 0.0 0.00 0.00 0.00 75 1009.2
20260504224954 54 89 0.0 0.0 0.00 0.00 0.00 75 1010.0
20260504224857 54 89 0.0 0.0 0.00 0.00 0.00 75 1010.0
20260504224731 54 89 0.0 0.0 0.00 0.00 0.00 75 1010.0
20260504224634 54 89 0.0 0.0 0.00 0.00 0.00 75 1010.0
20260504224535 54 89 0.0 0.0 0.00 0.00 0.00 75 1010.0
20260504224439 54 89 0.0 0.0 0.00 0.00 0.00 75 1010.0
20260504224310 54 89 0.0 0.0 0.00 0.00 0.00 75 1010.0
20260504224216 54 89 0.0 0.0 0.00 0.00 0.00 74 1010.0
20260504224120 54 89 0.0 0.0 0.00 0.00 0.00 74 1010.0
20260504224048 54 89 0.0 0.0 0.00 0.00 0.00 74 1009.2
20260504224013 54 89 0.0 0.0 0.00 0.00 0.00 74 1010.0
20260504223915 54 89 0.0 0.0 0.00 0.00 0.00 74 1010.0
20260504223758 54 89 0.0 0.0 0.00 0.00 0.00 74 1010.1
20260504223651 55 89 0.0 0.0 0.00 0.00 0.00 74 1010.0
20260504223557 55 89 0.0 0.0 0.00 0.00 0.00 74 1010.1
20260504223500 55 89 0.0 0.0 0.00 0.00 0.00 73 1010.0
20260504223222 55 89 0.0 0.0 0.00 0.00 0.00 74 1010.0
20260504223124 55 89 0.0 0.0 0.00 0.00 0.00 74 1010.1
20260504223025 55 89 0.0 0.0 0.00 0.00 0.00 73 1010.1
20260504222919 55 89 0.0 0.0 0.00 0.00 0.00 73 1010.1
20260504222804 55 89 0.0 0.0 0.00 0.00 0.00 73 1010.1
20260504222707 55 89 0.0 0.0 0.00 0.00 0.00 73 1010.1
20260504222632 55 89 0.0 0.0 0.00 0.00 0.00 73 1009.3
20260504222559 55 89 0.0 0.0 0.00 0.00 0.00 73 1010.1
20260504222502 55 89 0.0 0.0 0.00 0.00 0.00 73 1010.1
20260504222405 55 89 0.0 0.0 0.00 0.00 0.00 73 1010.1
20260504222259 55 89 0.0 2.0 0.00 0.00 0.00 73 1010.1
20260504222159 55 89 0.0 2.0 0.00 0.00 0.00 72 1010.1
20260504222106 55 89 0.0 2.0 0.00 0.00 0.00 72 1010.1
20260504222008 55 89 0.0 2.0 0.00 0.00 0.00 73 1010.0
20260504221903 55 89 0.0 4.0 0.00 0.00 0.00 72 1010.1
20260504221805 55 89 0.0 5.0 0.00 0.00 0.00 73 1010.0
20260504221707 55 89 0.0 5.0 0.00 0.00 0.00 73 1010.0
20260504221629 55 89 0.0 5.0 0.00 0.00 0.00 73 1009.2
20260504221559 55 89 0.0 7.0 0.00 0.00 0.00 73 1010.1
20260504221507 55 89 1.0 7.0 0.00 0.00 0.00 73 1010.1
20260504221409 55 89 1.0 7.0 0.00 0.00 0.00 74 1010.0
20260504221311 55 89 1.0 7.0 0.00 0.00 0.00 74 1010.0
20260504221204 55 89 2.0 7.0 0.00 0.00 0.00 74 1010.0
20260504221105 55 89 3.0 7.0 0.00 0.00 0.00 74 1010.0
20260504221005 55 89 4.0 7.0 0.00 0.00 0.00 74 1010.0
20260504220859 55 85 4.0 7.0 0.00 0.00 0.00 74 1010.0
20260504220807 56 82 4.0 7.0 0.00 0.00 0.00 74 1010.0
20260504220711 56 104 4.0 7.0 0.00 0.00 0.00 74 1010.0
20260504220614 56 92 5.0 7.0 0.00 0.00 0.00 73 1010.0
20260504220544 55 84 5.0 7.0 0.00 0.00 0.00 73 1009.2
20260504220504 56 100 5.0 7.0 0.00 0.00 0.00 73 1010.0
20260504220405 56 95 4.0 7.0 0.00 0.00 0.00 72 1010.0
20260504220307 56 65 4.0 7.0 0.00 0.00 0.00 72 1010.0
20260504220214 56 82 4.0 7.0 0.00 0.00 0.00 72 1010.0
20260504220152 55 95 3.0 7.0 0.00 0.00 0.00 73 1009.2
20260504220108 56 103 4.0 5.0 0.00 0.00 0.00 73 1010.0
20260504215838 56 82 3.0 6.0 0.00 0.00 0.00 73 1010.0
20260504215732 56 80 4.0 6.0 0.00 0.00 0.00 72 1010.0
20260504215636 56 95 4.0 5.0 0.00 0.00 0.00 72 1010.0
20260504215536 56 87 4.0 6.0 0.00 0.00 0.00 72 1010.0
20260504215509 56 87 3.0 6.0 0.00 0.00 0.00 72 1009.2
20260504215435 56 87 3.0 6.0 0.00 0.00 0.00 72 1010.0
20260504215339 56 77 3.0 5.0 0.00 0.00 0.00 72 1010.0
20260504215218 56 76 3.0 5.0 0.00 0.00 0.00 72 1010.0
20260504215122 56 76 3.0 5.0 0.00 0.00 0.00 72 1010.0
20260504215055 56 76 3.0 5.0 0.00 0.00 0.00 72 1009.2
20260504215014 56 76 3.0 5.0 0.00 0.00 0.00 72 1010.0
20260504214918 56 89 3.0 5.0 0.00 0.00 0.00 72 1010.0
20260504214822 56 96 4.0 5.0 0.00 0.00 0.00 72 1010.0
20260504214720 56 87 4.0 5.0 0.00 0.00 0.00 72 1010.0
20260504214621 56 81 3.0 4.0 0.00 0.00 0.00 72 1010.1
20260504214523 57 81 2.0 5.0 0.00 0.00 0.00 72 1010.0
20260504214426 57 80 2.0 5.0 0.00 0.00 0.00 72 1010.1
20260504214319 57 80 2.0 5.0 0.00 0.00 0.00 72 1010.0
20260504214220 57 81 3.0 5.0 0.00 0.00 0.00 72 1010.1
20260504214126 57 81 3.0 5.0 0.00 0.00 0.00 72 1010.1
20260504214055 56 80 3.0 5.0 0.00 0.00 0.00 72 1009.3
20260504214018 57 80 3.0 5.0 0.00 0.00 0.00 72 1010.1
20260504213922 57 94 3.0 6.0 0.00 0.00 0.00 72 1010.0
20260504213825 57 95 4.0 6.0 0.00 0.00 0.00 72 1010.1
20260504213719 57 95 4.0 6.0 0.00 0.00 0.00 72 1010.1
20260504213622 57 91 3.0 6.0 0.00 0.00 0.00 72 1010.1
20260504213523 57 82 3.0 6.0 0.00 0.00 0.00 72 1010.1
20260504213430 57 82 3.0 6.0 0.00 0.00 0.00 71 1010.1
20260504213324 57 78 3.0 6.0 0.00 0.00 0.00 71 1010.1
20260504213203 57 93 4.0 6.0 0.00 0.00 0.00 71 1010.1
20260504213106 57 91 4.0 7.0 0.00 0.00 0.00 70 1010.1
20260504213033 57 95 3.0 6.0 0.00 0.00 0.00 70 1009.3
20260504212958 57 104 3.0 5.0 0.00 0.00 0.00 70 1010.0
20260504212900 57 84 3.0 5.0 0.00 0.00 0.00 70 1010.0
20260504212806 57 79 2.0 3.0 0.00 0.00 0.00 69 1010.0
20260504212700 57 79 1.0 3.0 0.00 0.00 0.00 69 1010.0
20260504212558 57 79 1.0 4.0 0.00 0.00 0.00 69 1010.0
20260504212502 57 79 1.0 5.0 0.00 0.00 0.00 69 1010.0
20260504212314 56 79 2.0 5.0 0.00 0.00 0.00 70 1010.0
20260504212214 56 79 2.0 5.0 0.00 0.00 0.00 70 1010.0
20260504212053 56 79 2.0 7.0 0.00 0.00 0.00 70 1010.0
20260504212001 56 79 3.0 8.0 0.00 0.00 0.00 71 1010.0
20260504211856 56 79 3.0 9.0 0.00 0.00 0.00 71 1010.0
20260504211758 56 71 4.0 9.0 0.00 0.00 0.00 71 1010.0
20260504211640 56 74 4.0 9.0 0.00 0.00 0.00 71 1010.1
20260504211548 56 77 3.0 9.0 0.00 0.00 0.00 71 1009.3
20260504211509 57 70 4.0 9.0 0.00 0.00 0.00 70 1010.1
20260504211412 57 79 4.0 9.0 0.00 0.00 0.00 70 1010.1
20260504211257 57 82 5.0 9.0 0.00 0.00 0.00 69 1010.1
20260504211139 58 87 6.0 9.0 0.00 0.00 0.00 68 1010.1
20260504211107 57 89 6.0 9.0 0.00 0.00 0.00 68 1009.3
20260504210902 58 98 3.0 8.0 0.00 0.00 0.00 68 1010.1
20260504210803 58 86 2.0 3.0 0.00 0.00 0.00 68 1010.1
20260504210614 58 86 2.0 3.0 0.00 0.00 0.00 69 1010.0
20260504210515 58 86 1.0 3.0 0.00 0.00 0.00 69 1010.0
20260504210422 58 86 1.0 4.0 0.00 0.00 0.00 69 1010.0
20260504210327 58 86 1.0 4.0 0.00 0.00 0.00 69 1010.0
20260504210218 58 86 0.0 4.0 0.00 0.00 0.00 69 1010.0
20260504210122 58 86 1.0 4.0 0.00 0.00 0.00 69 1010.0
20260504210023 58 86 2.0 4.0 0.00 0.00 0.00 69 1010.1
20260504205917 58 86 2.0 4.0 0.00 0.00 0.00 69 1010.0
20260504205738 57 86 2.0 5.0 0.00 0.00 0.00 70 1010.1
20260504205644 57 87 2.0 5.0 0.00 0.00 0.00 70 1010.1
20260504205546 57 74 2.0 5.0 0.00 0.00 0.00 70 1009.3
20260504205514 58 74 2.0 5.0 0.00 0.00 0.00 70 1010.1
20260504205416 58 74 3.0 5.0 0.00 0.00 0.00 70 1010.0
20260504205012 58 89 4.0 7.0 0.00 0.00 0.00 70 1010.1
20260504204914 58 82 3.0 7.0 0.00 0.00 0.00 70 1010.1
20260504204731 58 83 3.0 7.0 0.00 0.00 0.00 70 1010.1
20260504204634 58 81 3.0 7.0 0.00 0.00 0.00 70 1010.1
20260504204514 58 89 3.0 7.0 0.00 0.00 0.00 69 1010.1
20260504204408 58 74 3.0 8.0 0.00 0.00 0.00 69 1010.1
20260504204311 58 85 3.0 8.0 0.00 0.00 0.00 69 1010.1
20260504204209 58 92 4.0 8.0 0.00 0.00 0.00 68 1010.2
20260504204117 58 109 3.0 8.0 0.00 0.00 0.00 68 1010.1
20260504204053 58 85 3.0 8.0 0.00 0.00 0.00 68 1009.4
20260504204008 58 75 4.0 8.0 0.00 0.00 0.00 67 1010.1
20260504203850 59 97 4.0 8.0 0.00 0.00 0.00 67 1010.1
20260504203711 59 96 4.0 8.0 0.00 0.00 0.00 67 1010.1
20260504203639 58 97 4.0 8.0 0.00 0.00 0.00 67 1009.3
20260504203602 59 89 4.0 8.0 0.00 0.00 0.00 67 1010.2